Time,TemperatureF,DewpointF,PressureIn,WindDirection,WindDirectionDegrees,WindSpeedMPH,WindSpeedGustMPH,Humidity,HourlyPrecipIn,Conditions,Clouds,dailyrainin,SoftwareType,DateUTC
2013-03-15 00:00:00,38.8,27.7,26.13,West,270,5.4,6.3,64,0.00,,---,0.00,VWS V14.01,2013-03-15 07:00:00,
2013-03-15 00:01:00,38.8,27.7,26.13,WNW,292,6.3,6.3,64,0.00,,---,0.00,VWS V14.01,2013-03-15 07:01:00,
2013-03-15 00:02:00,38.8,27.7,26.13,West,270,5.4,7.2,64,0.00,,---,0.00,VWS V14.01,2013-03-15 07:02:00,
2013-03-15 00:03:00,38.8,27.7,26.13,NW,315,5.8,7.2,64,0.00,,---,0.00,VWS V14.01,2013-03-15 07:03:00,
2013-03-15 00:04:00,39.0,27.9,26.13,WNW,292,8.3,13.2,64,0.00,,---,0.00,VWS V14.01,2013-03-15 07:04:00,
2013-03-15 00:05:00,39.4,27.9,26.13,West,270,8.1,8.3,63,0.00,,---,0.00,VWS V14.01,2013-03-15 07:05:00,
2013-03-15 00:06:00,39.4,27.5,26.13,West,270,10.1,10.1,62,0.00,,---,0.00,VWS V14.01,2013-03-15 07:06:00,
2013-03-15 00:07:00,39.7,27.8,26.13,NW,315,6.3,10.1,62,0.00,,---,0.00,VWS V14.01,2013-03-15 07:07:00,
2013-03-15 00:08:00,39.4,27.5,26.13,NW,315,4.9,8.3,62,0.00,,---,0.00,VWS V14.01,2013-03-15 07:08:00,
2013-03-15 00:09:00,39.2,27.3,26.13,NW,315,8.7,9.6,62,0.00,,---,0.00,VWS V14.01,2013-03-15 07:09:00,
2013-03-15 00:10:00,39.4,27.5,26.13,West,270,8.1,8.7,62,0.00,,---,0.00,VWS V14.01,2013-03-15 07:10:00,
2013-03-15 00:11:00,39.6,27.2,26.13,WNW,292,8.7,11.0,61,0.00,,---,0.00,VWS V14.01,2013-03-15 07:11:00,
2013-03-15 00:12:00,39.6,27.2,26.13,WNW,292,9.2,12.8,61,0.00,,---,0.00,VWS V14.01,2013-03-15 07:12:00,
2013-03-15 00:13:00,40.3,27.5,26.13,West,270,5.8,10.1,60,0.00,,---,0.00,VWS V14.01,2013-03-15 07:13:00,
2013-03-15 00:14:00,40.3,27.1,26.13,West,270,5.4,7.2,59,0.00,,---,0.00,VWS V14.01,2013-03-15 07:14:00,
2013-03-15 00:15:00,39.9,26.8,26.13,WNW,292,5.8,6.3,59,0.00,,---,0.00,VWS V14.01,2013-03-15 07:15:00,
2013-03-15 00:16:00,39.7,27.0,26.13,WNW,292,5.4,6.3,60,0.00,,---,0.00,VWS V14.01,2013-03-15 07:16:00,
2013-03-15 00:17:00,39.7,27.0,26.13,WNW,292,6.3,7.6,60,0.00,,---,0.00,VWS V14.01,2013-03-15 07:17:00,
2013-03-15 00:18:00,39.7,27.0,26.13,WNW,292,7.2,7.6,60,0.00,,---,0.00,VWS V14.01,2013-03-15 07:18:00,
2013-03-15 00:19:00,39.7,27.0,26.13,WNW,292,5.4,7.2,60,0.00,,---,0.00,VWS V14.01,2013-03-15 07:19:00,
2013-03-15 00:20:00,39.6,27.2,26.13,WNW,292,7.6,8.7,61,0.00,,---,0.00,VWS V14.01,2013-03-15 07:20:00,
2013-03-15 00:21:00,39.7,27.4,26.13,WNW,292,8.3,8.3,61,0.00,,---,0.00,VWS V14.01,2013-03-15 07:21:00,
2013-03-15 00:22:00,39.7,27.4,26.13,West,270,7.2,8.3,61,0.00,,---,0.00,VWS V14.01,2013-03-15 07:22:00,
2013-03-15 00:23:00,39.7,27.4,26.13,WNW,292,10.5,10.5,61,0.00,,---,0.00,VWS V14.01,2013-03-15 07:23:00,
2013-03-15 00:24:00,39.7,27.4,26.13,West,270,8.1,10.5,61,0.00,,---,0.00,VWS V14.01,2013-03-15 07:24:00,
2013-03-15 00:25:00,40.3,27.1,26.13,WNW,292,10.5,10.5,59,0.00,,---,0.00,VWS V14.01,2013-03-15 07:25:00,
2013-03-15 00:26:00,40.3,27.1,26.13,West,270,8.3,10.5,59,0.00,,---,0.00,VWS V14.01,2013-03-15 07:26:00,
2013-03-15 00:27:00,40.5,26.9,26.13,NW,315,7.2,8.3,58,0.00,,---,0.00,VWS V14.01,2013-03-15 07:27:00,
2013-03-15 00:28:00,40.3,26.7,26.13,NW,315,6.3,8.1,58,0.00,,---,0.00,VWS V14.01,2013-03-15 07:28:00,
2013-03-15 00:29:00,40.3,26.7,26.13,WNW,292,8.1,8.3,58,0.00,,---,0.00,VWS V14.01,2013-03-15 07:29:00,
2013-03-15 00:30:00,40.3,26.7,26.13,WNW,292,5.8,8.1,58,0.00,,---,0.00,VWS V14.01,2013-03-15 07:30:00,
2013-03-15 00:31:00,40.5,26.9,26.13,NW,315,4.9,5.8,58,0.00,,---,0.00,VWS V14.01,2013-03-15 07:31:00,
2013-03-15 00:32:00,39.7,26.2,26.13,NW,315,4.0,5.8,58,0.00,,---,0.00,VWS V14.01,2013-03-15 07:32:00,
2013-03-15 00:33:00,39.4,26.7,26.13,NW,315,3.1,7.6,60,0.00,,---,0.00,VWS V14.01,2013-03-15 07:33:00,
2013-03-15 00:34:00,39.4,26.7,26.13,West,270,8.1,8.1,60,0.00,,---,0.00,VWS V14.01,2013-03-15 07:34:00,
2013-03-15 00:35:00,39.4,26.7,26.13,NW,315,3.1,8.1,60,0.00,,---,0.00,VWS V14.01,2013-03-15 07:35:00,
2013-03-15 00:36:00,39.4,26.7,26.13,NW,315,4.9,6.7,60,0.00,,---,0.00,VWS V14.01,2013-03-15 07:36:00,
2013-03-15 00:37:00,39.2,27.3,26.13,NW,315,5.8,5.8,62,0.00,,---,0.00,VWS V14.01,2013-03-15 07:37:00,
2013-03-15 00:38:00,39.0,27.1,26.13,NW,315,6.3,6.3,62,0.00,,---,0.00,VWS V14.01,2013-03-15 07:38:00,
2013-03-15 00:39:00,39.0,27.5,26.13,NW,315,4.9,6.3,63,0.00,,---,0.00,VWS V14.01,2013-03-15 07:39:00,
2013-03-15 00:40:00,39.0,27.5,26.13,NW,315,5.8,5.8,63,0.00,,---,0.00,VWS V14.01,2013-03-15 07:40:00,
2013-03-15 00:41:00,38.8,27.3,26.13,NW,315,5.4,6.3,63,0.00,,---,0.00,VWS V14.01,2013-03-15 07:41:00,
2013-03-15 00:42:00,38.7,27.2,26.13,NW,315,5.4,5.4,63,0.00,,---,0.00,VWS V14.01,2013-03-15 07:42:00,
2013-03-15 00:43:00,38.7,27.2,26.13,NW,315,5.4,6.3,63,0.00,,---,0.00,VWS V14.01,2013-03-15 07:43:00,
2013-03-15 00:44:00,38.3,27.2,26.13,NW,315,5.4,6.3,64,0.00,,---,0.00,VWS V14.01,2013-03-15 07:44:00,
2013-03-15 00:45:00,38.3,27.2,26.13,NW,315,5.4,6.3,64,0.00,,---,0.00,VWS V14.01,2013-03-15 07:45:00,
2013-03-15 00:46:00,38.3,28.0,26.13,NW,315,5.4,5.4,66,0.00,,---,0.00,VWS V14.01,2013-03-15 07:46:00,
2013-03-15 00:47:00,38.5,28.5,26.13,NNW,338,4.9,5.4,67,0.00,,---,0.00,VWS V14.01,2013-03-15 07:47:00,
2013-03-15 00:48:00,38.5,28.5,26.13,West,270,5.8,5.8,67,0.00,,---,0.00,VWS V14.01,2013-03-15 07:48:00,
2013-03-15 00:49:00,38.7,28.3,26.13,WNW,292,6.7,8.7,66,0.00,,---,0.00,VWS V14.01,2013-03-15 07:49:00,
2013-03-15 00:50:00,38.8,28.5,26.13,WNW,292,6.7,8.3,66,0.00,,---,0.00,VWS V14.01,2013-03-15 07:50:00,
2013-03-15 00:51:00,38.8,28.1,26.13,West,270,4.9,7.2,65,0.00,,---,0.00,VWS V14.01,2013-03-15 07:51:00,
2013-03-15 00:52:00,38.7,27.5,26.13,NW,315,3.6,5.4,64,0.00,,---,0.00,VWS V14.01,2013-03-15 07:52:00,
2013-03-15 00:53:00,37.9,27.2,26.13,NW,315,3.1,3.6,65,0.00,,---,0.00,VWS V14.01,2013-03-15 07:53:00,
2013-03-15 00:54:00,37.9,27.2,26.13,NW,315,3.1,4.9,65,0.00,,---,0.00,VWS V14.01,2013-03-15 07:54:00,
2013-03-15 00:55:00,37.9,27.2,26.13,NW,315,3.6,3.6,65,0.00,,---,0.00,VWS V14.01,2013-03-15 07:55:00,
2013-03-15 00:56:00,37.9,27.2,26.13,WNW,292,5.8,5.8,65,0.00,,---,0.00,VWS V14.01,2013-03-15 07:56:00,
2013-03-15 00:57:00,37.6,27.3,26.13,WNW,292,3.1,7.2,66,0.00,,---,0.00,VWS V14.01,2013-03-15 07:57:00,
2013-03-15 00:58:00,37.9,28.0,26.13,WNW,292,8.7,8.7,67,0.00,,---,0.00,VWS V14.01,2013-03-15 07:58:00,
2013-03-15 00:59:00,37.8,27.8,26.13,NW,315,3.6,8.7,67,0.00,,---,0.00,VWS V14.01,2013-03-15 07:59:00,
2013-03-15 01:00:00,37.8,27.8,26.13,NW,315,4.9,5.8,67,0.00,,---,0.00,VWS V14.01,2013-03-15 08:00:00,
2013-03-15 01:01:00,37.8,27.8,26.13,NW,315,4.0,4.9,67,0.00,,---,0.00,VWS V14.01,2013-03-15 08:01:00,
2013-03-15 01:02:00,37.2,27.6,26.13,NW,315,5.4,5.4,68,0.00,,---,0.00,VWS V14.01,2013-03-15 08:02:00,
2013-03-15 01:03:00,37.2,27.6,26.13,WNW,292,4.0,5.4,68,0.00,,---,0.00,VWS V14.01,2013-03-15 08:03:00,
2013-03-15 01:04:00,37.8,28.2,26.13,NW,315,4.0,5.4,68,0.00,,---,0.00,VWS V14.01,2013-03-15 08:04:00,
2013-03-15 01:05:00,38.1,28.5,26.13,NW,315,5.4,5.4,68,0.00,,---,0.00,VWS V14.01,2013-03-15 08:05:00,
2013-03-15 01:06:00,38.1,28.5,26.13,NW,315,5.4,5.4,68,0.00,,---,0.00,VWS V14.01,2013-03-15 08:06:00,
2013-03-15 01:07:00,38.1,28.5,26.13,NW,315,5.4,5.4,68,0.00,,---,0.00,VWS V14.01,2013-03-15 08:07:00,
2013-03-15 01:08:00,38.1,28.5,26.13,WNW,292,5.4,5.4,68,0.00,,---,0.00,VWS V14.01,2013-03-15 08:08:00,
2013-03-15 01:09:00,38.1,28.5,26.13,NW,315,5.4,5.4,68,0.00,,---,0.00,VWS V14.01,2013-03-15 08:09:00,
2013-03-15 01:10:00,38.1,28.5,26.13,NW,315,4.0,6.3,68,0.00,,---,0.00,VWS V14.01,2013-03-15 08:10:00,
2013-03-15 01:11:00,38.1,28.5,26.13,WNW,292,4.0,4.9,68,0.00,,---,0.00,VWS V14.01,2013-03-15 08:11:00,
2013-03-15 01:12:00,38.1,28.5,26.13,WNW,292,3.6,5.8,68,0.00,,---,0.00,VWS V14.01,2013-03-15 08:12:00,
2013-03-15 01:13:00,38.1,28.5,26.13,WNW,292,5.4,5.4,68,0.00,,---,0.00,VWS V14.01,2013-03-15 08:13:00,
2013-03-15 01:14:00,38.1,28.5,26.13,WNW,292,4.0,5.4,68,0.00,,---,0.00,VWS V14.01,2013-03-15 08:14:00,
2013-03-15 01:15:00,38.1,28.5,26.13,West,270,5.4,5.4,68,0.00,,---,0.00,VWS V14.01,2013-03-15 08:15:00,
2013-03-15 01:16:00,38.1,28.5,26.13,WNW,292,5.8,8.3,68,0.00,,---,0.00,VWS V14.01,2013-03-15 08:16:00,
2013-03-15 01:17:00,38.3,28.3,26.13,WNW,292,4.9,5.8,67,0.00,,---,0.00,VWS V14.01,2013-03-15 08:17:00,
2013-03-15 01:18:00,38.1,27.8,26.13,WNW,292,3.6,6.3,66,0.00,,---,0.00,VWS V14.01,2013-03-15 08:18:00,
2013-03-15 01:19:00,38.1,27.8,26.13,West,270,4.9,4.9,66,0.00,,---,0.00,VWS V14.01,2013-03-15 08:19:00,
2013-03-15 01:20:00,38.1,28.1,26.13,West,270,5.4,5.8,67,0.00,,---,0.00,VWS V14.01,2013-03-15 08:20:00,
2013-03-15 01:21:00,38.3,28.3,26.13,West,270,6.3,6.7,67,0.00,,---,0.00,VWS V14.01,2013-03-15 08:21:00,
2013-03-15 01:22:00,38.7,28.3,26.13,NW,315,4.9,6.3,66,0.00,,---,0.00,VWS V14.01,2013-03-15 08:22:00,
2013-03-15 01:23:00,38.7,27.9,26.13,NW,315,9.6,9.6,65,0.00,,---,0.00,VWS V14.01,2013-03-15 08:23:00,
2013-03-15 01:24:00,39.2,28.1,26.13,West,270,8.7,9.6,64,0.00,,---,0.00,VWS V14.01,2013-03-15 08:24:00,
2013-03-15 01:25:00,39.2,28.1,26.13,WNW,292,8.1,8.7,64,0.00,,---,0.00,VWS V14.01,2013-03-15 08:25:00,
2013-03-15 01:26:00,39.6,27.6,26.13,West,270,10.5,10.5,62,0.00,,---,0.00,VWS V14.01,2013-03-15 08:26:00,
2013-03-15 01:27:00,40.3,27.5,26.13,West,270,10.1,12.3,60,0.00,,---,0.00,VWS V14.01,2013-03-15 08:27:00,
2013-03-15 01:28:00,40.1,26.9,26.13,West,270,15.0,15.0,59,0.00,,---,0.00,VWS V14.01,2013-03-15 08:28:00,
2013-03-15 01:29:00,40.1,26.9,26.13,WNW,292,12.8,15.0,59,0.00,,---,0.00,VWS V14.01,2013-03-15 08:29:00,
2013-03-15 01:30:00,40.1,26.9,26.13,WNW,292,11.0,12.8,59,0.00,,---,0.00,VWS V14.01,2013-03-15 08:30:00,
2013-03-15 01:31:00,41.0,26.5,26.13,West,270,13.2,13.2,56,0.00,,---,0.00,VWS V14.01,2013-03-15 08:31:00,
2013-03-15 01:32:00,41.5,26.6,26.13,West,270,15.0,15.0,55,0.00,,---,0.00,VWS V14.01,2013-03-15 08:32:00,
2013-03-15 01:33:00,41.5,26.6,26.13,NW,315,8.7,15.0,55,0.00,,---,0.00,VWS V14.01,2013-03-15 08:33:00,
2013-03-15 01:34:00,41.2,26.2,26.13,West,270,8.7,8.7,55,0.00,,---,0.00,VWS V14.01,2013-03-15 08:34:00,
2013-03-15 01:35:00,41.2,26.2,26.13,West,270,8.7,8.7,55,0.00,,---,0.00,VWS V14.01,2013-03-15 08:35:00,
2013-03-15 01:36:00,41.2,26.2,26.13,West,270,10.5,10.5,55,0.00,,---,0.00,VWS V14.01,2013-03-15 08:36:00,
2013-03-15 01:37:00,41.4,26.4,26.13,West,270,8.3,10.5,55,0.00,,---,0.00,VWS V14.01,2013-03-15 08:37:00,
2013-03-15 01:38:00,41.5,26.6,26.13,West,270,9.6,10.1,55,0.00,,---,0.00,VWS V14.01,2013-03-15 08:38:00,
2013-03-15 01:39:00,41.2,26.2,26.13,West,270,10.1,10.1,55,0.00,,---,0.00,VWS V14.01,2013-03-15 08:39:00,
2013-03-15 01:40:00,41.4,26.4,26.13,West,270,6.3,10.1,55,0.00,,---,0.00,VWS V14.01,2013-03-15 08:40:00,
2013-03-15 01:41:00,41.2,26.2,26.13,WNW,292,10.1,10.1,55,0.00,,---,0.00,VWS V14.01,2013-03-15 08:41:00,
2013-03-15 01:42:00,41.2,26.2,26.13,West,270,8.7,10.5,55,0.00,,---,0.00,VWS V14.01,2013-03-15 08:42:00,
2013-03-15 01:43:00,41.7,26.3,26.13,West,270,15.0,15.0,54,0.00,,---,0.00,VWS V14.01,2013-03-15 08:43:00,
2013-03-15 01:44:00,41.7,26.3,26.13,West,270,10.1,15.0,54,0.00,,---,0.00,VWS V14.01,2013-03-15 08:44:00,
2013-03-15 01:45:00,41.7,26.3,26.13,West,270,10.1,10.1,54,0.00,,---,0.00,VWS V14.01,2013-03-15 08:45:00,
2013-03-15 01:46:00,42.1,26.2,26.13,West,270,10.5,10.5,53,0.00,,---,0.00,VWS V14.01,2013-03-15 08:46:00,
2013-03-15 01:47:00,42.1,26.2,26.13,West,270,10.1,13.2,53,0.00,,---,0.00,VWS V14.01,2013-03-15 08:47:00,
2013-03-15 01:48:00,41.7,25.9,26.13,West,270,9.2,10.1,53,0.00,,---,0.00,VWS V14.01,2013-03-15 08:48:00,
2013-03-15 01:49:00,41.7,25.9,26.13,West,270,10.1,10.5,53,0.00,,---,0.00,VWS V14.01,2013-03-15 08:49:00,
2013-03-15 01:50:00,41.7,25.9,26.13,WNW,292,11.4,11.4,53,0.00,,---,0.00,VWS V14.01,2013-03-15 08:50:00,
2013-03-15 01:51:00,41.7,25.9,26.13,WNW,292,10.1,11.0,53,0.00,,---,0.00,VWS V14.01,2013-03-15 08:51:00,
2013-03-15 01:52:00,41.5,26.1,26.13,West,270,10.5,10.5,54,0.00,,---,0.00,VWS V14.01,2013-03-15 08:52:00,
2013-03-15 01:53:00,41.5,26.6,26.13,West,270,10.5,10.5,55,0.00,,---,0.00,VWS V14.01,2013-03-15 08:53:00,
2013-03-15 01:54:00,41.5,26.6,26.13,West,270,10.5,10.5,55,0.00,,---,0.00,VWS V14.01,2013-03-15 08:54:00,
2013-03-15 01:55:00,41.7,26.3,26.13,NW,315,8.1,11.0,54,0.00,,---,0.00,VWS V14.01,2013-03-15 08:55:00,
2013-03-15 01:56:00,41.7,26.3,26.13,WNW,292,7.6,12.3,54,0.00,,---,0.00,VWS V14.01,2013-03-15 08:56:00,
2013-03-15 01:57:00,41.7,26.3,26.13,WNW,292,8.1,8.7,54,0.00,,---,0.00,VWS V14.01,2013-03-15 08:57:00,
2013-03-15 01:58:00,41.7,26.3,26.13,WNW,292,10.5,12.8,54,0.00,,---,0.00,VWS V14.01,2013-03-15 08:58:00,
2013-03-15 01:59:00,41.7,26.3,26.13,NW,315,11.0,11.0,54,0.00,,---,0.00,VWS V14.01,2013-03-15 08:59:00,
2013-03-15 02:00:00,41.9,26.5,26.13,NW,315,10.5,11.0,54,0.00,,---,0.00,VWS V14.01,2013-03-15 09:00:00,
2013-03-15 02:01:00,41.9,26.5,26.13,WNW,292,8.7,10.5,54,0.00,,---,0.00,VWS V14.01,2013-03-15 09:01:00,
2013-03-15 02:02:00,42.1,26.2,26.13,NW,315,11.0,11.0,53,0.00,,---,0.00,VWS V14.01,2013-03-15 09:02:00,
2013-03-15 02:03:00,42.1,26.2,26.13,NW,315,10.1,12.3,53,0.00,,---,0.00,VWS V14.01,2013-03-15 09:03:00,
2013-03-15 02:04:00,42.1,26.2,26.13,WNW,292,7.6,10.1,53,0.00,,---,0.00,VWS V14.01,2013-03-15 09:04:00,
2013-03-15 02:05:00,41.4,26.0,26.13,West,270,6.3,7.6,54,0.00,,---,0.00,VWS V14.01,2013-03-15 09:05:00,
2013-03-15 02:06:00,41.2,25.8,26.13,West,270,8.3,8.3,54,0.00,,---,0.00,VWS V14.01,2013-03-15 09:06:00,
2013-03-15 02:07:00,41.0,26.1,26.13,WNW,292,12.3,12.3,55,0.00,,---,0.00,VWS V14.01,2013-03-15 09:07:00,
2013-03-15 02:08:00,40.8,26.4,26.13,NW,315,5.4,12.3,56,0.00,,---,0.00,VWS V14.01,2013-03-15 09:08:00,
2013-03-15 02:09:00,40.5,26.0,26.13,NW,315,5.4,5.4,56,0.00,,---,0.00,VWS V14.01,2013-03-15 09:09:00,
2013-03-15 02:10:00,40.5,26.4,26.13,NW,315,4.5,5.8,57,0.00,,---,0.00,VWS V14.01,2013-03-15 09:10:00,
2013-03-15 02:11:00,40.3,26.7,26.13,NW,315,9.6,11.4,58,0.00,,---,0.00,VWS V14.01,2013-03-15 09:11:00,
2013-03-15 02:12:00,40.5,26.9,26.13,WNW,292,8.3,9.6,58,0.00,,---,0.00,VWS V14.01,2013-03-15 09:12:00,
2013-03-15 02:13:00,40.3,26.7,26.13,West,270,15.0,15.0,58,0.00,,---,0.00,VWS V14.01,2013-03-15 09:13:00,
2013-03-15 02:14:00,41.0,26.5,26.13,NW,315,8.1,15.0,56,0.00,,---,0.00,VWS V14.01,2013-03-15 09:14:00,
2013-03-15 02:15:00,41.0,26.5,26.13,West,270,6.7,8.1,56,0.00,,---,0.00,VWS V14.01,2013-03-15 09:15:00,
2013-03-15 02:16:00,40.8,26.8,26.13,West,270,6.3,8.7,57,0.00,,---,0.00,VWS V14.01,2013-03-15 09:16:00,
2013-03-15 02:17:00,40.5,26.4,26.13,NW,315,8.1,8.1,57,0.00,,---,0.00,VWS V14.01,2013-03-15 09:17:00,
2013-03-15 02:18:00,40.5,26.9,26.13,NW,315,5.4,8.3,58,0.00,,---,0.00,VWS V14.01,2013-03-15 09:18:00,
2013-03-15 02:19:00,40.5,26.9,26.13,WNW,292,5.8,7.2,58,0.00,,---,0.00,VWS V14.01,2013-03-15 09:19:00,
2013-03-15 02:20:00,39.9,26.4,26.13,WNW,292,7.6,7.6,58,0.00,,---,0.00,VWS V14.01,2013-03-15 09:20:00,
2013-03-15 02:21:00,39.9,26.8,26.13,West,270,10.5,10.5,59,0.00,,---,0.00,VWS V14.01,2013-03-15 09:21:00,
2013-03-15 02:22:00,40.3,27.1,26.13,West,270,8.1,10.5,59,0.00,,---,0.00,VWS V14.01,2013-03-15 09:22:00,
2013-03-15 02:23:00,39.9,26.8,26.13,NW,315,5.8,8.1,59,0.00,,---,0.00,VWS V14.01,2013-03-15 09:23:00,
2013-03-15 02:24:00,39.9,26.8,26.13,NW,315,3.6,7.6,59,0.00,,---,0.00,VWS V14.01,2013-03-15 09:24:00,
2013-03-15 02:25:00,39.9,26.8,26.13,WNW,292,7.2,7.2,59,0.00,,---,0.00,VWS V14.01,2013-03-15 09:25:00,
2013-03-15 02:26:00,39.9,26.8,26.13,NW,315,6.3,7.2,59,0.00,,---,0.00,VWS V14.01,2013-03-15 09:26:00,
2013-03-15 02:27:00,39.7,27.0,26.13,NW,315,5.4,6.3,60,0.00,,---,0.00,VWS V14.01,2013-03-15 09:27:00,
2013-03-15 02:28:00,39.7,27.0,26.13,NW,315,6.3,6.3,60,0.00,,---,0.00,VWS V14.01,2013-03-15 09:28:00,
2013-03-15 02:29:00,39.7,27.0,26.13,NW,315,5.4,5.4,60,0.00,,---,0.00,VWS V14.01,2013-03-15 09:29:00,
2013-03-15 02:30:00,39.7,27.0,26.13,NW,315,6.3,6.3,60,0.00,,---,0.00,VWS V14.01,2013-03-15 09:30:00,
2013-03-15 02:31:00,38.8,27.0,26.13,NW,315,4.0,6.3,62,0.00,,---,0.00,VWS V14.01,2013-03-15 09:31:00,
2013-03-15 02:32:00,38.7,27.2,26.13,NW,315,4.9,6.3,63,0.00,,---,0.00,VWS V14.01,2013-03-15 09:32:00,
2013-03-15 02:33:00,38.7,27.2,26.13,NW,315,4.9,5.8,63,0.00,,---,0.00,VWS V14.01,2013-03-15 09:33:00,
2013-03-15 02:34:00,38.8,27.7,26.13,NW,315,5.4,5.4,64,0.00,,---,0.00,VWS V14.01,2013-03-15 09:34:00,
2013-03-15 02:35:00,38.8,27.7,26.13,WNW,292,6.3,6.3,64,0.00,,---,0.00,VWS V14.01,2013-03-15 09:35:00,
2013-03-15 02:36:00,38.8,27.7,26.13,NW,315,6.3,6.3,64,0.00,,---,0.00,VWS V14.01,2013-03-15 09:36:00,
2013-03-15 02:37:00,38.7,27.5,26.13,West,270,6.3,6.3,64,0.00,,---,0.00,VWS V14.01,2013-03-15 09:37:00,
2013-03-15 02:38:00,38.7,27.9,26.13,WNW,292,4.9,6.3,65,0.00,,---,0.00,VWS V14.01,2013-03-15 09:38:00,
2013-03-15 02:39:00,38.5,27.8,26.13,NW,315,6.7,6.7,65,0.00,,---,0.00,VWS V14.01,2013-03-15 09:39:00,
2013-03-15 02:40:00,38.7,28.3,26.13,NW,315,6.3,6.7,66,0.00,,---,0.00,VWS V14.01,2013-03-15 09:40:00,
2013-03-15 02:41:00,38.8,28.5,26.13,WNW,292,5.8,6.3,66,0.00,,---,0.00,VWS V14.01,2013-03-15 09:41:00,
2013-03-15 02:42:00,38.7,27.9,26.13,WNW,292,5.8,7.2,65,0.00,,---,0.00,VWS V14.01,2013-03-15 09:42:00,
2013-03-15 02:43:00,38.7,28.3,26.13,WNW,292,5.8,8.3,66,0.00,,---,0.00,VWS V14.01,2013-03-15 09:43:00,
2013-03-15 02:44:00,38.7,28.3,26.13,WNW,292,5.8,7.6,66,0.00,,---,0.00,VWS V14.01,2013-03-15 09:44:00,
2013-03-15 02:45:00,38.8,28.1,26.13,WNW,292,5.4,7.6,65,0.00,,---,0.00,VWS V14.01,2013-03-15 09:45:00,
2013-03-15 02:46:00,38.5,27.8,26.13,WNW,292,7.6,7.6,65,0.00,,---,0.00,VWS V14.01,2013-03-15 09:46:00,
2013-03-15 02:47:00,38.3,27.6,26.13,WNW,292,6.3,7.6,65,0.00,,---,0.00,VWS V14.01,2013-03-15 09:47:00,
2013-03-15 02:48:00,38.1,27.8,26.13,West,270,6.3,6.3,66,0.00,,---,0.00,VWS V14.01,2013-03-15 09:48:00,
2013-03-15 02:49:00,38.3,28.3,26.13,WNW,292,7.6,7.6,67,0.00,,---,0.00,VWS V14.01,2013-03-15 09:49:00,
2013-03-15 02:50:00,38.3,28.3,26.13,WNW,292,6.7,7.6,67,0.00,,---,0.00,VWS V14.01,2013-03-15 09:50:00,
2013-03-15 02:51:00,38.3,28.3,26.13,WNW,292,5.8,8.1,67,0.00,,---,0.00,VWS V14.01,2013-03-15 09:51:00,
2013-03-15 02:52:00,38.5,28.5,26.13,NW,315,6.3,8.1,67,0.00,,---,0.00,VWS V14.01,2013-03-15 09:52:00,
2013-03-15 02:53:00,38.5,28.5,26.13,WNW,292,5.4,6.3,67,0.00,,---,0.00,VWS V14.01,2013-03-15 09:53:00,
2013-03-15 02:54:00,37.9,27.6,26.13,WNW,292,4.9,6.3,66,0.00,,---,0.00,VWS V14.01,2013-03-15 09:54:00,
2013-03-15 02:55:00,37.9,27.6,26.13,WNW,292,7.2,7.2,66,0.00,,---,0.00,VWS V14.01,2013-03-15 09:55:00,
2013-03-15 02:56:00,37.9,27.6,26.13,WNW,292,4.9,8.1,66,0.00,,---,0.00,VWS V14.01,2013-03-15 09:56:00,
2013-03-15 02:57:00,38.3,28.7,26.13,NW,315,5.8,5.8,68,0.00,,---,0.00,VWS V14.01,2013-03-15 09:57:00,
2013-03-15 02:58:00,37.9,28.0,26.13,NW,315,4.9,5.8,67,0.00,,---,0.00,VWS V14.01,2013-03-15 09:58:00,
2013-03-15 02:59:00,37.9,28.3,26.13,NW,315,5.8,5.8,68,0.00,,---,0.00,VWS V14.01,2013-03-15 09:59:00,
2013-03-15 03:00:00,37.9,28.3,26.13,West,270,7.2,7.2,68,0.00,,---,0.00,VWS V14.01,2013-03-15 10:00:00,
2013-03-15 03:01:00,38.1,28.5,26.13,WNW,292,5.4,7.6,68,0.00,,---,0.00,VWS V14.01,2013-03-15 10:01:00,
2013-03-15 03:02:00,38.1,28.5,26.13,WNW,292,5.8,7.6,68,0.00,,---,0.00,VWS V14.01,2013-03-15 10:02:00,
2013-03-15 03:03:00,38.3,28.7,26.13,WNW,292,5.8,5.8,68,0.00,,---,0.00,VWS V14.01,2013-03-15 10:03:00,
2013-03-15 03:04:00,38.7,29.0,26.13,NW,315,5.4,8.7,68,0.00,,---,0.00,VWS V14.01,2013-03-15 10:04:00,
2013-03-15 03:05:00,38.7,28.7,26.13,WNW,292,5.8,8.7,67,0.00,,---,0.00,VWS V14.01,2013-03-15 10:05:00,
2013-03-15 03:06:00,38.3,28.0,26.13,WNW,292,4.0,6.7,66,0.00,,---,0.00,VWS V14.01,2013-03-15 10:06:00,
2013-03-15 03:07:00,38.1,28.1,26.13,WNW,292,4.9,5.8,67,0.00,,---,0.00,VWS V14.01,2013-03-15 10:07:00,
2013-03-15 03:08:00,37.9,28.0,26.13,WNW,292,5.4,5.4,67,0.00,,---,0.00,VWS V14.01,2013-03-15 10:08:00,
2013-03-15 03:09:00,37.9,28.3,26.13,NW,315,5.4,5.4,68,0.00,,---,0.00,VWS V14.01,2013-03-15 10:09:00,
2013-03-15 03:10:00,38.1,28.9,26.13,NW,315,4.9,6.3,69,0.00,,---,0.00,VWS V14.01,2013-03-15 10:10:00,
2013-03-15 03:11:00,37.9,28.3,26.13,WNW,292,5.8,5.8,68,0.00,,---,0.00,VWS V14.01,2013-03-15 10:11:00,
2013-03-15 03:12:00,37.9,28.3,26.13,WNW,292,5.8,5.8,68,0.00,,---,0.00,VWS V14.01,2013-03-15 10:12:00,
2013-03-15 03:14:00,37.8,28.5,26.13,NW,315,3.6,4.9,69,0.00,,---,0.00,VWS V14.01,2013-03-15 10:14:00,
2013-03-15 03:15:00,37.8,28.5,26.13,NW,315,4.9,4.9,69,0.00,,---,0.00,VWS V14.01,2013-03-15 10:15:00,
2013-03-15 03:16:00,37.6,28.4,26.13,WNW,292,5.4,5.4,69,0.00,,---,0.00,VWS V14.01,2013-03-15 10:16:00,
2013-03-15 03:17:00,37.8,28.9,26.13,WNW,292,6.3,6.3,70,0.00,,---,0.00,VWS V14.01,2013-03-15 10:17:00,
2013-03-15 03:18:00,37.9,29.0,26.13,WNW,292,6.7,6.7,70,0.00,,---,0.00,VWS V14.01,2013-03-15 10:18:00,
2013-03-15 03:19:00,37.8,28.5,26.13,WNW,292,7.6,7.6,69,0.00,,---,0.00,VWS V14.01,2013-03-15 10:19:00,
2013-03-15 03:20:00,38.1,28.9,26.13,WNW,292,7.6,7.6,69,0.00,,---,0.00,VWS V14.01,2013-03-15 10:20:00,
2013-03-15 03:21:00,37.9,28.7,26.13,NW,315,7.2,7.6,69,0.00,,---,0.00,VWS V14.01,2013-03-15 10:21:00,
2013-03-15 03:22:00,37.6,28.4,26.13,WNW,292,5.8,7.2,69,0.00,,---,0.00,VWS V14.01,2013-03-15 10:22:00,
2013-03-15 03:23:00,37.6,28.4,26.13,NW,315,3.6,5.8,69,0.00,,---,0.00,VWS V14.01,2013-03-15 10:23:00,
2013-03-15 03:24:00,37.6,28.4,26.13,NW,315,4.9,4.9,69,0.00,,---,0.00,VWS V14.01,2013-03-15 10:24:00,
2013-03-15 03:25:00,37.6,28.4,26.13,NW,315,4.9,4.9,69,0.00,,---,0.00,VWS V14.01,2013-03-15 10:25:00,
2013-03-15 03:26:00,37.6,28.7,26.13,WNW,292,7.2,7.2,70,0.00,,---,0.00,VWS V14.01,2013-03-15 10:26:00,
2013-03-15 03:27:00,37.9,29.0,26.13,WNW,292,4.0,7.2,70,0.00,,---,0.00,VWS V14.01,2013-03-15 10:27:00,
2013-03-15 03:28:00,37.9,29.0,26.13,WNW,292,4.0,5.8,70,0.00,,---,0.00,VWS V14.01,2013-03-15 10:28:00,
2013-03-15 03:29:00,37.8,28.5,26.13,NW,315,4.9,4.9,69,0.00,,---,0.00,VWS V14.01,2013-03-15 10:29:00,
2013-03-15 03:30:00,37.8,28.5,26.13,NW,315,3.1,5.4,69,0.00,,---,0.00,VWS V14.01,2013-03-15 10:30:00,
2013-03-15 03:31:00,37.8,28.5,26.13,NW,315,4.9,6.3,69,0.00,,---,0.00,VWS V14.01,2013-03-15 10:31:00,
2013-03-15 03:32:00,37.6,28.7,26.13,NW,315,3.6,5.4,70,0.00,,---,0.00,VWS V14.01,2013-03-15 10:32:00,
2013-03-15 03:33:00,38.1,29.2,26.13,WNW,292,5.8,8.1,70,0.00,,---,0.00,VWS V14.01,2013-03-15 10:33:00,
2013-03-15 03:34:00,38.1,28.9,26.13,NW,315,4.5,5.8,69,0.00,,---,0.00,VWS V14.01,2013-03-15 10:34:00,
2013-03-15 03:35:00,37.8,28.5,26.13,NW,315,5.8,5.8,69,0.00,,---,0.00,VWS V14.01,2013-03-15 10:35:00,
2013-03-15 03:36:00,37.8,28.5,26.13,NW,315,4.9,7.2,69,0.00,,---,0.00,VWS V14.01,2013-03-15 10:36:00,
2013-03-15 03:37:00,37.8,28.5,26.13,NW,315,3.1,4.9,69,0.00,,---,0.00,VWS V14.01,2013-03-15 10:37:00,
2013-03-15 03:38:00,37.4,28.2,26.13,WNW,292,8.7,8.7,69,0.00,,---,0.00,VWS V14.01,2013-03-15 10:38:00,
2013-03-15 03:39:00,37.9,29.0,26.13,NW,315,5.4,5.4,70,0.00,,---,0.00,VWS V14.01,2013-03-15 10:39:00,
2013-03-15 03:40:00,37.9,29.0,26.13,NW,315,6.3,6.3,70,0.00,,---,0.00,VWS V14.01,2013-03-15 10:40:00,
2013-03-15 03:41:00,37.9,29.0,26.13,NW,315,4.9,6.3,70,0.00,,---,0.00,VWS V14.01,2013-03-15 10:41:00,
2013-03-15 03:42:00,38.7,29.4,26.13,WNW,292,9.6,9.6,69,0.00,,---,0.00,VWS V14.01,2013-03-15 10:42:00,
2013-03-15 03:43:00,38.7,29.4,26.13,NW,315,3.1,9.6,69,0.00,,---,0.00,VWS V14.01,2013-03-15 10:43:00,
2013-03-15 03:44:00,38.7,29.4,26.13,West,270,6.3,6.3,69,0.00,,---,0.00,VWS V14.01,2013-03-15 10:44:00,
2013-03-15 03:45:00,38.1,28.5,26.13,WNW,292,5.4,6.3,68,0.00,,---,0.00,VWS V14.01,2013-03-15 10:45:00,
2013-03-15 03:46:00,37.9,28.3,26.13,NW,315,5.4,6.3,68,0.00,,---,0.00,VWS V14.01,2013-03-15 10:46:00,
2013-03-15 03:47:00,37.6,28.0,26.13,NW,315,3.1,5.8,68,0.00,,---,0.00,VWS V14.01,2013-03-15 10:47:00,
2013-03-15 03:48:00,37.6,28.0,26.13,NW,315,4.9,5.4,68,0.00,,---,0.00,VWS V14.01,2013-03-15 10:48:00,
2013-03-15 03:49:00,37.6,28.0,26.13,NW,315,5.4,5.4,68,0.00,,---,0.00,VWS V14.01,2013-03-15 10:49:00,
2013-03-15 03:50:00,37.6,28.0,26.13,NW,315,4.9,6.3,68,0.00,,---,0.00,VWS V14.01,2013-03-15 10:50:00,
2013-03-15 03:51:00,38.1,28.9,26.13,NW,315,4.9,4.9,69,0.00,,---,0.00,VWS V14.01,2013-03-15 10:51:00,
2013-03-15 03:52:00,37.9,28.7,26.13,NW,315,4.9,4.9,69,0.00,,---,0.00,VWS V14.01,2013-03-15 10:52:00,
2013-03-15 03:53:00,37.9,28.7,26.13,NW,315,5.4,5.4,69,0.00,,---,0.00,VWS V14.01,2013-03-15 10:53:00,
2013-03-15 03:54:00,37.8,28.5,26.13,NW,315,5.4,5.4,69,0.00,,---,0.00,VWS V14.01,2013-03-15 10:54:00,
2013-03-15 03:55:00,37.8,28.5,26.13,NW,315,3.6,5.8,69,0.00,,---,0.00,VWS V14.01,2013-03-15 10:55:00,
2013-03-15 03:56:00,37.8,28.5,26.13,NNW,338,5.4,5.8,69,0.00,,---,0.00,VWS V14.01,2013-03-15 10:56:00,
2013-03-15 03:57:00,37.8,28.5,26.13,NNW,338,5.8,5.8,69,0.00,,---,0.00,VWS V14.01,2013-03-15 10:57:00,
2013-03-15 03:58:00,38.1,28.9,26.13,WNW,292,4.9,5.8,69,0.00,,---,0.00,VWS V14.01,2013-03-15 10:58:00,
2013-03-15 03:59:00,38.1,28.9,26.13,West,270,7.6,7.6,69,0.00,,---,0.00,VWS V14.01,2013-03-15 10:59:00,
2013-03-15 04:00:00,38.1,28.9,26.13,NW,315,4.0,7.6,69,0.00,,---,0.00,VWS V14.01,2013-03-15 11:00:00,
2013-03-15 04:01:00,38.5,28.5,26.13,NW,315,4.0,4.9,67,0.00,,---,0.00,VWS V14.01,2013-03-15 11:01:00,
2013-03-15 04:02:00,38.5,28.5,26.13,NW,315,4.9,4.9,67,0.00,,---,0.00,VWS V14.01,2013-03-15 11:02:00,
2013-03-15 04:03:00,38.1,28.1,26.13,NW,315,4.0,5.4,67,0.00,,---,0.00,VWS V14.01,2013-03-15 11:03:00,
2013-03-15 04:04:00,38.1,28.5,26.13,NW,315,4.0,4.0,68,0.00,,---,0.00,VWS V14.01,2013-03-15 11:04:00,
2013-03-15 04:05:00,38.1,28.5,26.13,NW,315,3.6,4.0,68,0.00,,---,0.00,VWS V14.01,2013-03-15 11:05:00,
2013-03-15 04:06:00,37.9,28.3,26.13,NW,315,3.6,4.0,68,0.00,,---,0.00,VWS V14.01,2013-03-15 11:06:00,
2013-03-15 04:07:00,37.9,28.3,26.13,NW,315,4.0,4.0,68,0.00,,---,0.00,VWS V14.01,2013-03-15 11:07:00,
2013-03-15 04:08:00,37.9,28.3,26.13,NW,315,4.0,4.5,68,0.00,,---,0.00,VWS V14.01,2013-03-15 11:08:00,
2013-03-15 04:09:00,37.9,28.3,26.13,NW,315,4.0,4.0,68,0.00,,---,0.00,VWS V14.01,2013-03-15 11:09:00,
2013-03-15 04:10:00,37.9,28.3,26.13,NW,315,3.1,4.0,68,0.00,,---,0.00,VWS V14.01,2013-03-15 11:10:00,
2013-03-15 04:11:00,37.8,28.2,26.13,NW,315,4.9,4.9,68,0.00,,---,0.00,VWS V14.01,2013-03-15 11:11:00,
2013-03-15 04:12:00,37.6,28.0,26.13,NW,315,3.1,4.9,68,0.00,,---,0.00,VWS V14.01,2013-03-15 11:12:00,
2013-03-15 04:13:00,37.6,28.0,26.13,NW,315,2.7,3.6,68,0.00,,---,0.00,VWS V14.01,2013-03-15 11:13:00,
2013-03-15 04:14:00,37.6,28.0,26.13,NW,315,4.9,4.9,68,0.00,,---,0.00,VWS V14.01,2013-03-15 11:14:00,
2013-03-15 04:15:00,37.6,28.4,26.13,WNW,292,5.8,5.8,69,0.00,,---,0.00,VWS V14.01,2013-03-15 11:15:00,
2013-03-15 04:16:00,37.8,28.5,26.13,West,270,7.6,7.6,69,0.00,,---,0.00,VWS V14.01,2013-03-15 11:16:00,
2013-03-15 04:17:00,38.5,28.9,26.13,WNW,292,4.9,7.6,68,0.00,,---,0.00,VWS V14.01,2013-03-15 11:17:00,
2013-03-15 04:18:00,38.5,28.9,26.13,WNW,292,5.8,5.8,68,0.00,,---,0.00,VWS V14.01,2013-03-15 11:18:00,
2013-03-15 04:19:00,38.5,28.5,26.13,WNW,292,5.8,5.8,67,0.00,,---,0.00,VWS V14.01,2013-03-15 11:19:00,
2013-03-15 04:20:00,38.5,28.5,26.13,NW,315,4.5,5.8,67,0.00,,---,0.00,VWS V14.01,2013-03-15 11:20:00,
2013-03-15 04:21:00,38.7,28.7,26.13,NW,315,5.4,5.4,67,0.00,,---,0.00,VWS V14.01,2013-03-15 11:21:00,
2013-03-15 04:22:00,38.5,28.5,26.13,NW,315,4.9,5.4,67,0.00,,---,0.00,VWS V14.01,2013-03-15 11:22:00,
2013-03-15 04:23:00,38.5,28.1,26.13,NW,315,4.0,5.4,66,0.00,,---,0.00,VWS V14.01,2013-03-15 11:23:00,
2013-03-15 04:24:00,38.5,28.1,26.13,NW,315,3.1,3.1,66,0.00,,---,0.00,VWS V14.01,2013-03-15 11:24:00,
2013-03-15 04:25:00,38.3,28.3,26.13,NW,315,4.0,4.5,67,0.00,,---,0.00,VWS V14.01,2013-03-15 11:25:00,
2013-03-15 04:26:00,38.3,28.3,26.13,NW,315,3.6,4.0,67,0.00,,---,0.00,VWS V14.01,2013-03-15 11:26:00,
2013-03-15 04:27:00,38.1,28.1,26.13,NW,315,3.1,3.6,67,0.00,,---,0.00,VWS V14.01,2013-03-15 11:27:00,
2013-03-15 04:28:00,37.9,28.0,26.13,NW,315,3.6,4.9,67,0.00,,---,0.00,VWS V14.01,2013-03-15 11:28:00,
2013-03-15 04:29:00,37.9,28.0,26.13,North,0,4.0,4.0,67,0.00,,---,0.00,VWS V14.01,2013-03-15 11:29:00,
2013-03-15 04:31:00,37.8,27.8,26.13,NNW,338,3.1,4.0,67,0.00,,---,0.00,VWS V14.01,2013-03-15 11:31:00,
2013-03-15 04:32:00,37.4,27.5,26.13,NNW,338,3.6,3.6,67,0.00,,---,0.00,VWS V14.01,2013-03-15 11:32:00,
2013-03-15 04:33:00,37.4,27.8,26.13,NNW,338,4.0,4.0,68,0.00,,---,0.00,VWS V14.01,2013-03-15 11:33:00,
2013-03-15 04:34:00,37.4,27.8,26.13,North,0,4.9,4.9,68,0.00,,---,0.00,VWS V14.01,2013-03-15 11:34:00,
2013-03-15 04:35:00,37.2,28.0,26.13,NNW,338,4.0,4.9,69,0.00,,---,0.00,VWS V14.01,2013-03-15 11:35:00,
2013-03-15 04:36:00,37.4,28.2,26.13,NW,315,3.6,5.4,69,0.00,,---,0.00,VWS V14.01,2013-03-15 11:36:00,
2013-03-15 04:37:00,37.4,28.2,26.13,West,270,4.0,5.4,69,0.00,,---,0.00,VWS V14.01,2013-03-15 11:37:00,
2013-03-15 04:38:00,37.6,28.7,26.13,NW,315,2.7,5.8,70,0.00,,---,0.00,VWS V14.01,2013-03-15 11:38:00,
2013-03-15 04:39:00,37.6,28.4,26.16,NW,315,4.0,4.0,69,0.00,,---,0.00,VWS V14.01,2013-03-15 11:39:00,
2013-03-15 04:40:00,37.4,28.2,26.16,NW,315,4.9,4.9,69,0.00,,---,0.00,VWS V14.01,2013-03-15 11:40:00,
2013-03-15 04:41:00,37.8,28.9,26.16,NNW,338,4.9,5.8,70,0.00,,---,0.00,VWS V14.01,2013-03-15 11:41:00,
2013-03-15 04:42:00,37.9,29.0,26.16,NNW,338,5.4,5.4,70,0.00,,---,0.00,VWS V14.01,2013-03-15 11:42:00,
2013-03-15 04:43:00,37.9,29.0,26.16,NNW,338,5.4,5.4,70,0.00,,---,0.00,VWS V14.01,2013-03-15 11:43:00,
2013-03-15 04:44:00,37.9,29.0,26.16,NNW,338,4.0,4.5,70,0.00,,---,0.00,VWS V14.01,2013-03-15 11:44:00,
2013-03-15 04:45:00,37.9,29.0,26.16,NNW,338,4.0,4.5,70,0.00,,---,0.00,VWS V14.01,2013-03-15 11:45:00,
2013-03-15 04:46:00,37.8,28.9,26.16,NNW,338,4.0,4.0,70,0.00,,---,0.00,VWS V14.01,2013-03-15 11:46:00,
2013-03-15 04:47:00,37.8,28.9,26.16,NNW,338,4.0,4.0,70,0.00,,---,0.00,VWS V14.01,2013-03-15 11:47:00,
2013-03-15 04:48:00,37.8,28.9,26.16,NNW,338,4.0,4.0,70,0.00,,---,0.00,VWS V14.01,2013-03-15 11:48:00,
2013-03-15 04:49:00,37.9,29.0,26.16,NNW,338,4.0,4.0,70,0.00,,---,0.00,VWS V14.01,2013-03-15 11:49:00,
2013-03-15 04:50:00,37.9,29.0,26.16,NNW,338,4.0,4.0,70,0.00,,---,0.00,VWS V14.01,2013-03-15 11:50:00,
2013-03-15 04:51:00,37.8,28.9,26.16,NNW,338,4.0,4.0,70,0.00,,---,0.00,VWS V14.01,2013-03-15 11:51:00,
2013-03-15 04:52:00,37.9,29.0,26.16,NW,315,3.6,4.0,70,0.00,,---,0.00,VWS V14.01,2013-03-15 11:52:00,
2013-03-15 04:53:00,37.6,28.7,26.16,NW,315,3.1,3.6,70,0.00,,---,0.00,VWS V14.01,2013-03-15 11:53:00,
2013-03-15 04:54:00,37.4,28.5,26.16,NW,315,3.6,3.6,70,0.00,,---,0.00,VWS V14.01,2013-03-15 11:54:00,
2013-03-15 04:55:00,37.4,28.5,26.16,NW,315,4.0,4.0,70,0.00,,---,0.00,VWS V14.01,2013-03-15 11:55:00,
2013-03-15 04:56:00,37.4,28.5,26.16,NW,315,3.6,4.0,70,0.00,,---,0.00,VWS V14.01,2013-03-15 11:56:00,
2013-03-15 04:57:00,37.2,28.7,26.16,NW,315,2.7,4.9,71,0.00,,---,0.00,VWS V14.01,2013-03-15 11:57:00,
2013-03-15 04:58:00,37.4,28.9,26.16,NW,315,4.5,4.5,71,0.00,,---,0.00,VWS V14.01,2013-03-15 11:58:00,
2013-03-15 04:59:00,37.2,28.7,26.16,NW,315,3.6,4.5,71,0.00,,---,0.00,VWS V14.01,2013-03-15 11:59:00,
2013-03-15 05:00:00,37.4,28.9,26.16,NW,315,3.6,3.6,71,0.00,,---,0.00,VWS V14.01,2013-03-15 12:00:00,
2013-03-15 05:01:00,37.2,28.7,26.16,NW,315,2.7,3.6,71,0.00,,---,0.00,VWS V14.01,2013-03-15 12:01:00,
2013-03-15 05:02:00,37.0,28.5,26.16,NW,315,3.1,3.1,71,0.00,,---,0.00,VWS V14.01,2013-03-15 12:02:00,
2013-03-15 05:03:00,37.0,28.9,26.16,NW,315,2.7,3.1,72,0.00,,---,0.00,VWS V14.01,2013-03-15 12:03:00,
2013-03-15 05:04:00,37.0,28.9,26.16,West,270,4.0,4.0,72,0.00,,---,0.00,VWS V14.01,2013-03-15 12:04:00,
2013-03-15 05:05:00,37.4,29.2,26.16,WNW,292,2.7,6.3,72,0.00,,---,0.00,VWS V14.01,2013-03-15 12:05:00,
2013-03-15 05:06:00,37.4,29.2,26.16,NW,315,5.4,5.4,72,0.00,,---,0.00,VWS V14.01,2013-03-15 12:06:00,
2013-03-15 05:07:00,37.4,29.2,26.16,NW,315,3.6,6.3,72,0.00,,---,0.00,VWS V14.01,2013-03-15 12:07:00,
2013-03-15 05:08:00,37.8,29.6,26.16,WNW,292,3.6,5.8,72,0.00,,---,0.00,VWS V14.01,2013-03-15 12:08:00,
2013-03-15 05:09:00,37.9,29.4,26.16,NW,315,5.4,5.4,71,0.00,,---,0.00,VWS V14.01,2013-03-15 12:09:00,
2013-03-15 05:10:00,37.9,29.4,26.16,NW,315,4.0,5.4,71,0.00,,---,0.00,VWS V14.01,2013-03-15 12:10:00,
2013-03-15 05:11:00,38.1,29.6,26.16,WNW,292,4.0,5.8,71,0.00,,---,0.00,VWS V14.01,2013-03-15 12:11:00,
2013-03-15 05:12:00,38.1,29.6,26.16,WNW,292,5.4,5.4,71,0.00,,---,0.00,VWS V14.01,2013-03-15 12:12:00,
2013-03-15 05:13:00,38.1,29.6,26.16,NW,315,4.0,7.2,71,0.00,,---,0.00,VWS V14.01,2013-03-15 12:13:00,
2013-03-15 05:14:00,38.1,29.2,26.16,NW,315,4.0,4.9,70,0.00,,---,0.00,VWS V14.01,2013-03-15 12:14:00,
2013-03-15 05:15:00,38.1,29.2,26.16,NW,315,4.0,5.8,70,0.00,,---,0.00,VWS V14.01,2013-03-15 12:15:00,
2013-03-15 05:16:00,38.1,29.2,26.16,NW,315,3.6,4.9,70,0.00,,---,0.00,VWS V14.01,2013-03-15 12:16:00,
2013-03-15 05:17:00,38.1,29.2,26.16,NW,315,5.4,5.4,70,0.00,,---,0.00,VWS V14.01,2013-03-15 12:17:00,
2013-03-15 05:18:00,38.1,29.2,26.16,NW,315,3.6,5.4,70,0.00,,---,0.00,VWS V14.01,2013-03-15 12:18:00,
2013-03-15 05:19:00,38.1,29.2,26.16,NW,315,4.9,4.9,70,0.00,,---,0.00,VWS V14.01,2013-03-15 12:19:00,
2013-03-15 05:20:00,38.3,29.4,26.16,NW,315,5.4,5.4,70,0.00,,---,0.00,VWS V14.01,2013-03-15 12:20:00,
2013-03-15 05:21:00,38.3,29.4,26.16,NW,315,5.8,5.8,70,0.00,,---,0.00,VWS V14.01,2013-03-15 12:21:00,
2013-03-15 05:22:00,38.3,29.4,26.16,NW,315,4.9,5.8,70,0.00,,---,0.00,VWS V14.01,2013-03-15 12:22:00,
2013-03-15 05:23:00,38.3,29.4,26.16,NW,315,4.5,4.9,70,0.00,,---,0.00,VWS V14.01,2013-03-15 12:23:00,
2013-03-15 05:24:00,38.3,29.4,26.16,NW,315,4.0,4.9,70,0.00,,---,0.00,VWS V14.01,2013-03-15 12:24:00,
2013-03-15 05:25:00,38.3,29.4,26.16,NW,315,4.0,4.9,70,0.00,,---,0.00,VWS V14.01,2013-03-15 12:25:00,
2013-03-15 05:26:00,38.3,29.4,26.16,WNW,292,5.8,5.8,70,0.00,,---,0.00,VWS V14.01,2013-03-15 12:26:00,
2013-03-15 05:27:00,38.5,29.6,26.16,NW,315,5.8,5.8,70,0.00,,---,0.00,VWS V14.01,2013-03-15 12:27:00,
2013-03-15 05:28:00,38.5,29.2,26.16,NW,315,4.9,5.8,69,0.00,,---,0.00,VWS V14.01,2013-03-15 12:28:00,
2013-03-15 05:29:00,38.5,29.6,26.16,NNW,338,5.4,5.4,70,0.00,,---,0.00,VWS V14.01,2013-03-15 12:29:00,
2013-03-15 05:30:00,38.5,29.6,26.16,NW,315,5.8,8.3,70,0.00,,---,0.00,VWS V14.01,2013-03-15 12:30:00,
2013-03-15 05:31:00,38.7,29.4,26.16,NW,315,5.4,7.6,69,0.00,,---,0.00,VWS V14.01,2013-03-15 12:31:00,
2013-03-15 05:32:00,38.7,29.4,26.16,NW,315,5.8,5.8,69,0.00,,---,0.00,VWS V14.01,2013-03-15 12:32:00,
2013-03-15 05:33:00,38.7,29.4,26.16,NW,315,5.4,5.8,69,0.00,,---,0.00,VWS V14.01,2013-03-15 12:33:00,
2013-03-15 05:34:00,38.7,29.4,26.16,NW,315,5.4,7.2,69,0.00,,---,0.00,VWS V14.01,2013-03-15 12:34:00,
2013-03-15 05:35:00,38.5,29.2,26.16,NNW,338,5.4,5.4,69,0.00,,---,0.00,VWS V14.01,2013-03-15 12:35:00,
2013-03-15 05:36:00,38.7,29.4,26.16,NNW,338,5.8,5.8,69,0.00,,---,0.00,VWS V14.01,2013-03-15 12:36:00,
2013-03-15 05:37:00,38.5,29.2,26.16,NNW,338,4.9,6.3,69,0.00,,---,0.00,VWS V14.01,2013-03-15 12:37:00,
2013-03-15 05:38:00,38.7,29.4,26.16,NW,315,5.4,5.4,69,0.00,,---,0.00,VWS V14.01,2013-03-15 12:38:00,
2013-03-15 05:39:00,38.7,29.4,26.13,NNW,338,5.4,6.3,69,0.00,,---,0.00,VWS V14.01,2013-03-15 12:39:00,
2013-03-15 05:40:00,38.7,29.4,26.13,NW,315,5.8,6.3,69,0.00,,---,0.00,VWS V14.01,2013-03-15 12:40:00,
2013-03-15 05:41:00,38.7,29.4,26.13,NNW,338,8.7,8.7,69,0.00,,---,0.00,VWS V14.01,2013-03-15 12:41:00,
2013-03-15 05:42:00,38.7,29.4,26.13,NNW,338,5.4,8.7,69,0.00,,---,0.00,VWS V14.01,2013-03-15 12:42:00,
2013-03-15 05:44:00,39.0,29.4,26.13,NW,315,3.6,5.8,68,0.00,,---,0.00,VWS V14.01,2013-03-15 12:44:00,
2013-03-15 05:45:00,39.0,29.4,26.13,NW,315,6.3,6.3,68,0.00,,---,0.00,VWS V14.01,2013-03-15 12:45:00,
2013-03-15 05:46:00,39.0,29.4,26.13,NW,315,5.8,6.3,68,0.00,,---,0.00,VWS V14.01,2013-03-15 12:46:00,
2013-03-15 05:47:00,39.0,29.4,26.13,NW,315,5.8,5.8,68,0.00,,---,0.00,VWS V14.01,2013-03-15 12:47:00,
2013-03-15 05:48:00,39.0,29.4,26.13,NW,315,5.8,5.8,68,0.00,,---,0.00,VWS V14.01,2013-03-15 12:48:00,
2013-03-15 05:49:00,39.0,29.4,26.13,NW,315,5.8,5.8,68,0.00,,---,0.00,VWS V14.01,2013-03-15 12:49:00,
2013-03-15 05:50:00,39.0,29.4,26.13,NW,315,5.8,5.8,68,0.00,,---,0.00,VWS V14.01,2013-03-15 12:50:00,
2013-03-15 05:51:00,39.0,29.4,26.13,NW,315,5.8,5.8,68,0.00,,---,0.00,VWS V14.01,2013-03-15 12:51:00,
2013-03-15 05:52:00,39.0,29.4,26.13,NW,315,5.8,6.7,68,0.00,,---,0.00,VWS V14.01,2013-03-15 12:52:00,
2013-03-15 05:53:00,39.2,29.2,26.13,NW,315,8.1,8.1,67,0.00,,---,0.00,VWS V14.01,2013-03-15 12:53:00,
2013-03-15 05:54:00,39.2,29.2,26.16,NW,315,6.3,8.1,67,0.00,,---,0.00,VWS V14.01,2013-03-15 12:54:00,
2013-03-15 05:55:00,39.2,29.2,26.16,NW,315,6.7,6.7,67,0.00,,---,0.00,VWS V14.01,2013-03-15 12:55:00,
2013-03-15 05:56:00,39.2,29.2,26.16,NW,315,7.6,7.6,67,0.00,,---,0.00,VWS V14.01,2013-03-15 12:56:00,
2013-03-15 05:57:00,39.2,29.2,26.16,NW,315,5.4,7.6,67,0.00,,---,0.00,VWS V14.01,2013-03-15 12:57:00,
2013-03-15 05:58:00,39.2,29.2,26.16,NW,315,5.4,5.4,67,0.00,,---,0.00,VWS V14.01,2013-03-15 12:58:00,
2013-03-15 05:59:00,39.2,29.2,26.16,NW,315,4.9,5.4,67,0.00,,---,0.00,VWS V14.01,2013-03-15 12:59:00,
2013-03-15 06:00:00,39.2,29.2,26.16,NW,315,6.3,6.3,67,0.00,,---,0.00,VWS V14.01,2013-03-15 13:00:00,
2013-03-15 06:01:00,39.2,29.5,26.16,NW,315,4.9,6.3,68,0.00,,---,0.00,VWS V14.01,2013-03-15 13:01:00,
2013-03-15 06:02:00,39.2,29.5,26.16,NW,315,7.2,7.6,68,0.00,,---,0.00,VWS V14.01,2013-03-15 13:02:00,
2013-03-15 06:03:00,39.2,29.2,26.16,NW,315,6.3,7.2,67,0.00,,---,0.00,VWS V14.01,2013-03-15 13:03:00,
2013-03-15 06:04:00,39.2,29.2,26.16,NW,315,8.7,8.7,67,0.00,,---,0.00,VWS V14.01,2013-03-15 13:04:00,
2013-03-15 06:05:00,39.4,29.4,26.16,NW,315,5.8,8.7,67,0.00,,---,0.00,VWS V14.01,2013-03-15 13:05:00,
2013-03-15 06:06:00,39.2,29.2,26.16,NW,315,8.3,8.3,67,0.00,,---,0.00,VWS V14.01,2013-03-15 13:06:00,
2013-03-15 06:07:00,39.2,29.2,26.16,NW,315,5.8,8.3,67,0.00,,---,0.00,VWS V14.01,2013-03-15 13:07:00,
2013-03-15 06:08:00,39.4,29.4,26.16,NW,315,5.8,6.3,67,0.00,,---,0.00,VWS V14.01,2013-03-15 13:08:00,
2013-03-15 06:09:00,39.4,29.4,26.16,NW,315,6.7,6.7,67,0.00,,---,0.00,VWS V14.01,2013-03-15 13:09:00,
2013-03-15 06:10:00,39.4,29.4,26.16,NW,315,7.6,7.6,67,0.00,,---,0.00,VWS V14.01,2013-03-15 13:10:00,
2013-03-15 06:11:00,39.4,29.4,26.16,NW,315,4.9,7.6,67,0.00,,---,0.00,VWS V14.01,2013-03-15 13:11:00,
2013-03-15 06:12:00,39.4,29.4,26.16,NW,315,4.9,5.4,67,0.00,,---,0.00,VWS V14.01,2013-03-15 13:12:00,
2013-03-15 06:13:00,39.4,29.4,26.16,NW,315,5.8,5.8,67,0.00,,---,0.00,VWS V14.01,2013-03-15 13:13:00,
2013-03-15 06:14:00,39.6,29.5,26.16,NW,315,4.9,4.9,67,0.00,,---,0.00,VWS V14.01,2013-03-15 13:14:00,
2013-03-15 06:15:00,39.2,29.2,26.16,NW,315,6.3,6.3,67,0.00,,---,0.00,VWS V14.01,2013-03-15 13:15:00,
2013-03-15 06:16:00,39.2,29.2,26.16,NW,315,4.9,6.3,67,0.00,,---,0.00,VWS V14.01,2013-03-15 13:16:00,
2013-03-15 06:17:00,39.2,29.2,26.16,NW,315,5.8,6.3,67,0.00,,---,0.00,VWS V14.01,2013-03-15 13:17:00,
2013-03-15 06:18:00,39.2,29.2,26.16,NW,315,5.8,5.8,67,0.00,,---,0.00,VWS V14.01,2013-03-15 13:18:00,
2013-03-15 06:19:00,39.2,29.2,26.16,NW,315,4.9,5.8,67,0.00,,---,0.00,VWS V14.01,2013-03-15 13:19:00,
2013-03-15 06:20:00,39.0,29.4,26.16,NW,315,5.4,5.4,68,0.00,,---,0.00,VWS V14.01,2013-03-15 13:20:00,
2013-03-15 06:21:00,39.0,29.4,26.16,NNW,338,5.4,5.4,68,0.00,,---,0.00,VWS V14.01,2013-03-15 13:21:00,
2013-03-15 06:22:00,39.2,29.5,26.16,NNW,338,5.8,10.1,68,0.00,,---,0.00,VWS V14.01,2013-03-15 13:22:00,
2013-03-15 06:23:00,39.4,29.4,26.16,North,0,5.4,6.3,67,0.00,,---,0.00,VWS V14.01,2013-03-15 13:23:00,
2013-03-15 06:24:00,39.4,29.4,26.16,NW,315,5.4,5.4,67,0.00,,---,0.00,VWS V14.01,2013-03-15 13:24:00,
2013-03-15 06:25:00,39.4,29.4,26.16,NNW,338,5.4,5.4,67,0.00,,---,0.00,VWS V14.01,2013-03-15 13:25:00,
2013-03-15 06:26:00,39.0,29.0,26.16,NNW,338,4.9,5.4,67,0.00,,---,0.00,VWS V14.01,2013-03-15 13:26:00,
2013-03-15 06:27:00,39.0,29.4,26.16,NNW,338,4.9,5.8,68,0.00,,---,0.00,VWS V14.01,2013-03-15 13:27:00,
2013-03-15 06:28:00,38.8,29.2,26.16,NNW,338,5.8,5.8,68,0.00,,---,0.00,VWS V14.01,2013-03-15 13:28:00,
2013-03-15 06:29:00,38.8,29.2,26.16,NNW,338,4.9,5.8,68,0.00,,---,0.00,VWS V14.01,2013-03-15 13:29:00,
2013-03-15 06:30:00,38.8,29.2,26.16,NNW,338,4.9,5.4,68,0.00,,---,0.00,VWS V14.01,2013-03-15 13:30:00,
2013-03-15 06:31:00,38.8,29.2,26.16,NW,315,4.0,6.3,68,0.00,,---,0.00,VWS V14.01,2013-03-15 13:31:00,
2013-03-15 06:32:00,38.8,29.5,26.16,NW,315,4.9,4.9,69,0.00,,---,0.00,VWS V14.01,2013-03-15 13:32:00,
2013-03-15 06:33:00,38.8,29.5,26.16,NW,315,5.4,6.3,69,0.00,,---,0.00,VWS V14.01,2013-03-15 13:33:00,
2013-03-15 06:34:00,38.7,29.4,26.16,NW,315,4.9,5.4,69,0.00,,---,0.00,VWS V14.01,2013-03-15 13:34:00,
2013-03-15 06:35:00,38.5,29.2,26.16,NW,315,4.5,5.4,69,0.00,,---,0.00,VWS V14.01,2013-03-15 13:35:00,
2013-03-15 06:36:00,38.5,29.2,26.16,NW,315,6.3,6.3,69,0.00,,---,0.00,VWS V14.01,2013-03-15 13:36:00,
2013-03-15 06:37:00,38.5,29.2,26.16,NNW,338,4.9,6.3,69,0.00,,---,0.00,VWS V14.01,2013-03-15 13:37:00,
2013-03-15 06:38:00,38.5,29.2,26.16,NNW,338,5.8,5.8,69,0.00,,---,0.00,VWS V14.01,2013-03-15 13:38:00,
2013-03-15 06:39:00,38.3,29.4,26.19,NNW,338,4.0,5.8,70,0.00,,---,0.00,VWS V14.01,2013-03-15 13:39:00,
2013-03-15 06:40:00,38.3,29.4,26.19,WNW,292,5.4,5.4,70,0.00,,---,0.00,VWS V14.01,2013-03-15 13:40:00,
2013-03-15 06:41:00,38.3,29.4,26.19,NW,315,4.0,5.4,70,0.00,,---,0.00,VWS V14.01,2013-03-15 13:41:00,
2013-03-15 06:42:00,38.1,29.2,26.19,NW,315,4.9,4.9,70,0.00,,---,0.00,VWS V14.01,2013-03-15 13:42:00,
2013-03-15 06:43:00,38.1,29.2,26.19,NW,315,4.9,5.4,70,0.00,,---,0.00,VWS V14.01,2013-03-15 13:43:00,
2013-03-15 06:44:00,38.1,29.6,26.19,NW,315,4.9,5.4,71,0.00,,---,0.00,VWS V14.01,2013-03-15 13:44:00,
2013-03-15 06:45:00,38.1,29.6,26.19,NW,315,5.4,5.4,71,0.00,,---,0.00,VWS V14.01,2013-03-15 13:45:00,
2013-03-15 06:46:00,38.3,29.7,26.19,NW,315,4.9,5.4,71,0.00,,---,0.00,VWS V14.01,2013-03-15 13:46:00,
2013-03-15 06:47:00,38.1,29.6,26.19,NW,315,4.0,5.4,71,0.00,,---,0.00,VWS V14.01,2013-03-15 13:47:00,
2013-03-15 06:48:00,38.1,29.6,26.19,NW,315,3.6,5.8,71,0.00,,---,0.00,VWS V14.01,2013-03-15 13:48:00,
2013-03-15 06:49:00,38.1,29.6,26.19,NW,315,4.5,4.9,71,0.00,,---,0.00,VWS V14.01,2013-03-15 13:49:00,
2013-03-15 06:50:00,38.1,29.6,26.19,NW,315,5.4,5.4,71,0.00,,---,0.00,VWS V14.01,2013-03-15 13:50:00,
2013-03-15 06:51:00,38.1,29.6,26.19,NNW,338,5.8,6.3,71,0.00,,---,0.00,VWS V14.01,2013-03-15 13:51:00,
2013-03-15 06:52:00,38.1,29.6,26.19,NW,315,4.9,5.8,71,0.00,,---,0.00,VWS V14.01,2013-03-15 13:52:00,
2013-03-15 06:53:00,38.1,29.6,26.19,NW,315,4.9,4.9,71,0.00,,---,0.00,VWS V14.01,2013-03-15 13:53:00,
2013-03-15 06:54:00,38.1,29.6,26.19,NW,315,4.9,5.4,71,0.00,,---,0.00,VWS V14.01,2013-03-15 13:54:00,
2013-03-15 06:55:00,38.3,29.7,26.19,NW,315,4.0,5.4,71,0.00,,---,0.00,VWS V14.01,2013-03-15 13:55:00,
2013-03-15 06:56:00,38.1,29.6,26.19,NNW,338,4.0,4.9,71,0.00,,---,0.00,VWS V14.01,2013-03-15 13:56:00,
2013-03-15 06:57:00,38.1,29.6,26.19,NW,315,4.0,4.0,71,0.00,,---,0.00,VWS V14.01,2013-03-15 13:57:00,
2013-03-15 06:58:00,38.1,29.6,26.19,NW,315,6.3,7.6,71,0.00,,---,0.00,VWS V14.01,2013-03-15 13:58:00,
2013-03-15 06:59:00,38.1,29.6,26.19,NW,315,3.1,6.3,71,0.00,,---,0.00,VWS V14.01,2013-03-15 13:59:00,
2013-03-15 07:00:00,37.9,29.4,26.19,NW,315,3.1,4.0,71,0.00,,---,0.00,VWS V14.01,2013-03-15 14:00:00,
2013-03-15 07:01:00,37.8,29.2,26.19,NW,315,3.6,3.6,71,0.00,,---,0.00,VWS V14.01,2013-03-15 14:01:00,
2013-03-15 07:02:00,37.6,29.0,26.19,NW,315,3.6,3.6,71,0.00,,---,0.00,VWS V14.01,2013-03-15 14:02:00,
2013-03-15 07:03:00,37.4,28.9,26.19,NW,315,2.7,3.6,71,0.00,,---,0.00,VWS V14.01,2013-03-15 14:03:00,
2013-03-15 07:04:00,37.2,29.0,26.19,NW,315,4.0,4.0,72,0.00,,---,0.00,VWS V14.01,2013-03-15 14:04:00,
2013-03-15 07:05:00,37.2,29.0,26.19,NW,315,4.9,4.9,72,0.00,,---,0.00,VWS V14.01,2013-03-15 14:05:00,
2013-03-15 07:06:00,37.0,28.9,26.19,NNW,338,4.9,4.9,72,0.00,,---,0.00,VWS V14.01,2013-03-15 14:06:00,
2013-03-15 07:07:00,37.0,28.9,26.19,NNW,338,3.6,4.9,72,0.00,,---,0.00,VWS V14.01,2013-03-15 14:07:00,
2013-03-15 07:08:00,36.9,28.7,26.19,NNW,338,4.9,5.4,72,0.00,,---,0.00,VWS V14.01,2013-03-15 14:08:00,
2013-03-15 07:09:00,36.9,29.0,26.19,NNW,338,4.0,4.9,73,0.00,,---,0.00,VWS V14.01,2013-03-15 14:09:00,
2013-03-15 07:10:00,36.9,29.0,26.19,NNW,338,4.0,6.3,73,0.00,,---,0.00,VWS V14.01,2013-03-15 14:10:00,
2013-03-15 07:11:00,37.0,29.5,26.19,NNW,338,5.4,5.4,74,0.00,,---,0.00,VWS V14.01,2013-03-15 14:11:00,
2013-03-15 07:12:00,37.0,29.5,26.19,NNW,338,4.0,5.4,74,0.00,,---,0.00,VWS V14.01,2013-03-15 14:12:00,
2013-03-15 07:13:00,37.0,29.5,26.19,NNW,338,4.0,4.0,74,0.00,,---,0.00,VWS V14.01,2013-03-15 14:13:00,
2013-03-15 07:14:00,37.0,29.5,26.19,NNW,338,5.4,5.4,74,0.00,,---,0.00,VWS V14.01,2013-03-15 14:14:00,
2013-03-15 07:15:00,37.0,29.5,26.19,NNW,338,4.5,5.4,74,0.00,,---,0.00,VWS V14.01,2013-03-15 14:15:00,
2013-03-15 07:16:00,37.0,29.5,26.19,NNW,338,4.5,4.9,74,0.00,,---,0.00,VWS V14.01,2013-03-15 14:16:00,
2013-03-15 07:17:00,37.0,29.5,26.19,NNW,338,5.4,5.4,74,0.00,,---,0.00,VWS V14.01,2013-03-15 14:17:00,
2013-03-15 07:18:00,37.0,29.5,26.19,NNW,338,5.4,5.4,74,0.00,,---,0.00,VWS V14.01,2013-03-15 14:18:00,
2013-03-15 07:19:00,37.2,29.7,26.19,NNW,338,4.0,5.4,74,0.00,,---,0.00,VWS V14.01,2013-03-15 14:19:00,
2013-03-15 07:20:00,37.2,29.7,26.19,NNW,338,4.0,4.9,74,0.00,,---,0.00,VWS V14.01,2013-03-15 14:20:00,
2013-03-15 07:21:00,37.2,29.7,26.19,NNW,338,3.1,3.6,74,0.00,,---,0.00,VWS V14.01,2013-03-15 14:21:00,
2013-03-15 07:22:00,37.0,29.5,26.19,NNW,338,2.7,3.6,74,0.00,,---,0.00,VWS V14.01,2013-03-15 14:22:00,
2013-03-15 07:23:00,37.0,29.5,26.19,NNW,338,2.7,3.1,74,0.00,,---,0.00,VWS V14.01,2013-03-15 14:23:00,
2013-03-15 07:24:00,36.9,29.4,26.19,NNW,338,3.6,3.6,74,0.00,,---,0.00,VWS V14.01,2013-03-15 14:24:00,
2013-03-15 07:25:00,36.7,29.2,26.19,West,270,3.1,5.8,74,0.00,,---,0.00,VWS V14.01,2013-03-15 14:25:00,
2013-03-15 07:26:00,36.9,29.4,26.19,West,270,4.0,4.0,74,0.00,,---,0.00,VWS V14.01,2013-03-15 14:26:00,
2013-03-15 07:27:00,36.9,29.4,26.19,West,270,2.2,4.0,74,0.00,,---,0.00,VWS V14.01,2013-03-15 14:27:00,
2013-03-15 07:28:00,36.7,29.5,26.19,WNW,292,2.7,3.1,75,0.00,,---,0.00,VWS V14.01,2013-03-15 14:28:00,
2013-03-15 07:29:00,36.7,29.5,26.19,WNW,292,2.7,2.7,75,0.00,,---,0.00,VWS V14.01,2013-03-15 14:29:00,
2013-03-15 07:30:00,36.7,29.5,26.19,NW,315,2.2,2.7,75,0.00,,---,0.00,VWS V14.01,2013-03-15 14:30:00,
2013-03-15 07:31:00,36.5,29.3,26.19,NW,315,2.2,2.7,75,0.00,,---,0.00,VWS V14.01,2013-03-15 14:31:00,
2013-03-15 07:32:00,36.5,29.3,26.19,NW,315,2.2,2.7,75,0.00,,---,0.00,VWS V14.01,2013-03-15 14:32:00,
2013-03-15 07:33:00,36.5,29.3,26.19,NW,315,2.7,3.1,75,0.00,,---,0.00,VWS V14.01,2013-03-15 14:33:00,
2013-03-15 07:34:00,36.7,29.5,26.19,NW,315,2.7,3.1,75,0.00,,---,0.00,VWS V14.01,2013-03-15 14:34:00,
2013-03-15 07:35:00,36.5,29.3,26.19,NW,315,2.7,2.7,75,0.00,,---,0.00,VWS V14.01,2013-03-15 14:35:00,
2013-03-15 07:36:00,36.7,29.5,26.19,NW,315,4.0,4.0,75,0.00,,---,0.00,VWS V14.01,2013-03-15 14:36:00,
2013-03-15 07:37:00,36.7,29.5,26.19,NW,315,3.1,4.0,75,0.00,,---,0.00,VWS V14.01,2013-03-15 14:37:00,
2013-03-15 07:38:00,36.9,30.0,26.19,NW,315,2.2,2.7,76,0.00,,---,0.00,VWS V14.01,2013-03-15 14:38:00,
2013-03-15 07:39:00,36.7,29.5,26.19,NW,315,0.0,2.7,75,0.00,,---,0.00,VWS V14.01,2013-03-15 14:39:00,
2013-03-15 07:40:00,36.7,29.5,26.22,NW,315,0.0,0.0,75,0.00,,---,0.00,VWS V14.01,2013-03-15 14:40:00,
2013-03-15 07:42:00,36.7,29.5,26.22,NW,315,0.0,0.0,75,0.00,,---,0.00,VWS V14.01,2013-03-15 14:42:00,
2013-03-15 07:47:00,37.0,30.2,26.22,WNW,292,2.2,2.7,76,0.00,,---,0.00,VWS V14.01,2013-03-15 14:47:00,
2013-03-15 07:52:00,37.0,30.2,26.22,WNW,292,2.2,2.2,76,0.00,,---,0.00,VWS V14.01,2013-03-15 14:52:00,
2013-03-15 07:57:00,37.0,30.2,26.19,WNW,292,0.0,0.0,76,0.00,,---,0.00,VWS V14.01,2013-03-15 14:57:00,
2013-03-15 08:02:00,37.4,30.5,26.19,WNW,292,0.0,0.0,76,0.00,,---,0.00,VWS V14.01,2013-03-15 15:02:00,
2013-03-15 08:07:00,37.9,30.7,26.19,WNW,292,0.0,0.0,75,0.00,,---,0.00,VWS V14.01,2013-03-15 15:07:00,
2013-03-15 08:12:00,38.5,31.3,26.22,WNW,292,0.0,0.0,75,0.00,,---,0.00,VWS V14.01,2013-03-15 15:12:00,
2013-03-15 08:17:00,38.7,31.1,26.22,WNW,292,0.0,0.0,74,0.00,,---,0.00,VWS V14.01,2013-03-15 15:17:00,
2013-03-15 08:22:00,39.2,31.3,26.22,WNW,292,0.0,0.0,73,0.00,,---,0.00,VWS V14.01,2013-03-15 15:22:00,
2013-03-15 08:27:00,39.9,31.3,26.22,West,270,2.2,3.1,71,0.00,,---,0.00,VWS V14.01,2013-03-15 15:27:00,
2013-03-15 08:32:00,39.9,30.9,26.22,West,270,0.0,0.0,70,0.00,,---,0.00,VWS V14.01,2013-03-15 15:32:00,
2013-03-15 08:37:00,40.3,30.6,26.22,West,270,2.2,2.7,68,0.00,,---,0.00,VWS V14.01,2013-03-15 15:37:00,
2013-03-15 08:42:00,40.6,30.5,26.22,WSW,248,3.1,3.6,67,0.00,,---,0.00,VWS V14.01,2013-03-15 15:42:00,
2013-03-15 08:47:00,40.6,30.2,26.22,WSW,248,2.7,2.7,66,0.00,,---,0.00,VWS V14.01,2013-03-15 15:47:00,
2013-03-15 08:52:00,40.8,30.0,26.22,WNW,292,2.7,2.7,65,0.00,,---,0.00,VWS V14.01,2013-03-15 15:52:00,
2013-03-15 08:57:00,41.2,29.9,26.22,NNW,338,4.0,4.0,64,0.00,,---,0.00,VWS V14.01,2013-03-15 15:57:00,
2013-03-15 09:02:00,41.5,30.3,26.22,NW,315,4.9,4.9,64,0.00,,---,0.00,VWS V14.01,2013-03-15 16:02:00,
2013-03-15 09:07:00,41.7,30.5,26.22,NW,315,4.9,5.8,64,0.00,,---,0.00,VWS V14.01,2013-03-15 16:07:00,
2013-03-15 09:12:00,41.7,30.1,26.22,NNW,338,5.8,5.8,63,0.00,,---,0.00,VWS V14.01,2013-03-15 16:12:00,
2013-03-15 09:17:00,41.9,29.9,26.22,North,0,5.4,7.6,62,0.00,,---,0.00,VWS V14.01,2013-03-15 16:17:00,
2013-03-15 09:22:00,41.9,29.9,26.22,NW,315,4.9,4.9,62,0.00,,---,0.00,VWS V14.01,2013-03-15 16:22:00,
2013-03-15 09:27:00,41.9,29.9,26.22,NW,315,5.4,5.4,62,0.00,,---,0.00,VWS V14.01,2013-03-15 16:27:00,
2013-03-15 09:32:00,41.9,30.2,26.22,North,0,6.3,6.3,63,0.00,,---,0.00,VWS V14.01,2013-03-15 16:32:00,
2013-03-15 09:37:00,41.9,30.2,26.22,NW,315,3.6,3.6,63,0.00,,---,0.00,VWS V14.01,2013-03-15 16:37:00,
2013-03-15 09:42:00,42.1,30.8,26.22,NW,315,4.0,4.0,64,0.00,,---,0.00,VWS V14.01,2013-03-15 16:42:00,
2013-03-15 09:47:00,42.3,30.6,26.22,North,0,8.7,8.7,63,0.00,,---,0.00,VWS V14.01,2013-03-15 16:47:00,
2013-03-15 09:52:00,42.6,30.9,26.22,NW,315,3.6,3.6,63,0.00,,---,0.00,VWS V14.01,2013-03-15 16:52:00,
2013-03-15 09:57:00,43.2,30.6,26.22,NNW,338,4.9,4.9,61,0.00,,---,0.00,VWS V14.01,2013-03-15 16:57:00,
2013-03-15 10:02:00,43.5,29.7,26.22,NNW,338,4.0,4.0,58,0.00,,---,0.00,VWS V14.01,2013-03-15 17:02:00,
2013-03-15 10:07:00,44.2,30.8,26.22,NW,315,3.6,3.6,59,0.00,,---,0.00,VWS V14.01,2013-03-15 17:07:00,
2013-03-15 10:12:00,44.8,30.1,26.25,North,0,4.0,4.9,56,0.00,,---,0.00,VWS V14.01,2013-03-15 17:12:00,
2013-03-15 10:17:00,45.1,29.5,26.25,NW,315,5.4,8.1,54,0.00,,---,0.00,VWS V14.01,2013-03-15 17:17:00,
2013-03-15 10:22:00,45.3,29.2,26.25,WNW,292,3.1,4.0,53,0.00,,---,0.00,VWS V14.01,2013-03-15 17:22:00,
2013-03-15 10:27:00,45.3,29.2,26.25,SW,225,8.1,8.3,53,0.00,,---,0.00,VWS V14.01,2013-03-15 17:27:00,
2013-03-15 10:32:00,45.1,29.0,26.25,NW,315,5.8,8.3,53,0.00,,---,0.00,VWS V14.01,2013-03-15 17:32:00,
2013-03-15 10:37:00,45.5,29.4,26.25,West,270,4.9,6.3,53,0.00,,---,0.00,VWS V14.01,2013-03-15 17:37:00,
2013-03-15 10:42:00,44.6,29.0,26.25,WSW,248,4.0,7.2,54,0.00,,---,0.00,VWS V14.01,2013-03-15 17:42:00,
2013-03-15 10:47:00,45.0,28.9,26.25,SW,225,4.0,11.0,53,0.00,,---,0.00,VWS V14.01,2013-03-15 17:47:00,
2013-03-15 10:52:00,45.0,28.9,26.25,West,270,5.4,5.4,53,0.00,,---,0.00,VWS V14.01,2013-03-15 17:52:00,
2013-03-15 10:57:00,45.0,29.3,26.22,West,270,7.6,8.1,54,0.00,,---,0.00,VWS V14.01,2013-03-15 17:57:00,
2013-03-15 11:02:00,45.5,29.8,26.22,WSW,248,5.8,5.8,54,0.00,,---,0.00,VWS V14.01,2013-03-15 18:02:00,
2013-03-15 11:07:00,45.7,29.5,26.22,WSW,248,5.8,6.3,53,0.00,,---,0.00,VWS V14.01,2013-03-15 18:07:00,
2013-03-15 11:12:00,46.0,29.4,26.25,West,270,3.1,5.8,52,0.00,,---,0.00,VWS V14.01,2013-03-15 18:12:00,
2013-03-15 11:17:00,46.6,29.4,26.25,West,270,5.8,7.6,51,0.00,,---,0.00,VWS V14.01,2013-03-15 18:17:00,
2013-03-15 11:22:00,46.0,28.0,26.25,West,270,6.3,6.3,49,0.00,,---,0.00,VWS V14.01,2013-03-15 18:22:00,
2013-03-15 11:27:00,46.2,28.1,26.25,SW,225,5.4,6.3,49,0.00,,---,0.00,VWS V14.01,2013-03-15 18:27:00,
2013-03-15 11:32:00,45.9,28.3,26.25,WSW,248,4.0,5.8,50,0.00,,---,0.00,VWS V14.01,2013-03-15 18:32:00,
2013-03-15 11:37:00,46.4,27.3,26.25,NW,315,4.0,4.0,47,0.00,,---,0.00,VWS V14.01,2013-03-15 18:37:00,
2013-03-15 11:42:00,46.6,27.5,26.25,West,270,6.3,6.3,47,0.00,,---,0.00,VWS V14.01,2013-03-15 18:42:00,
2013-03-15 11:47:00,46.4,27.8,26.25,WSW,248,5.8,5.8,48,0.00,,---,0.00,VWS V14.01,2013-03-15 18:47:00,
2013-03-15 11:52:00,46.4,27.8,26.25,West,270,4.9,6.3,48,0.00,,---,0.00,VWS V14.01,2013-03-15 18:52:00,
2013-03-15 11:57:00,45.9,27.8,26.22,West,270,6.3,9.6,49,0.00,,---,0.00,VWS V14.01,2013-03-15 18:57:00,
2013-03-15 12:02:00,45.7,27.6,26.22,SW,225,6.3,6.3,49,0.00,,---,0.00,VWS V14.01,2013-03-15 19:02:00,
2013-03-15 12:07:00,46.4,28.3,26.22,WSW,248,6.3,6.7,49,0.00,,---,0.00,VWS V14.01,2013-03-15 19:07:00,
2013-03-15 12:12:00,46.8,27.6,26.25,WNW,292,7.6,7.6,47,0.00,,---,0.00,VWS V14.01,2013-03-15 19:12:00,
2013-03-15 12:17:00,47.1,27.9,26.25,West,270,6.7,6.7,47,0.00,,---,0.00,VWS V14.01,2013-03-15 19:17:00,
2013-03-15 12:22:00,47.7,26.3,26.25,West,270,5.8,7.6,43,0.00,,---,0.00,VWS V14.01,2013-03-15 19:22:00,
2013-03-15 12:27:00,48.4,26.9,26.22,NW,315,8.3,8.3,43,0.00,,---,0.00,VWS V14.01,2013-03-15 19:27:00,
2013-03-15 12:32:00,48.4,26.9,26.22,WNW,292,6.7,6.7,43,0.00,,---,0.00,VWS V14.01,2013-03-15 19:32:00,
2013-03-15 12:37:00,48.7,26.7,26.22,North,0,4.0,4.5,42,0.00,,---,0.00,VWS V14.01,2013-03-15 19:37:00,
2013-03-15 12:42:00,48.6,26.0,26.22,NW,315,4.9,7.6,41,0.00,,---,0.00,VWS V14.01,2013-03-15 19:42:00,
2013-03-15 12:47:00,48.2,26.8,26.22,NW,315,4.0,5.4,43,0.00,,---,0.00,VWS V14.01,2013-03-15 19:47:00,
2013-03-15 12:52:00,47.8,24.7,26.22,WNW,292,3.6,5.8,40,0.00,,---,0.00,VWS V14.01,2013-03-15 19:52:00,
2013-03-15 12:57:00,48.4,25.2,26.22,NW,315,7.2,7.2,40,0.00,,---,0.00,VWS V14.01,2013-03-15 19:57:00,
2013-03-15 13:02:00,48.9,25.7,26.22,NW,315,5.4,5.4,40,0.00,,---,0.00,VWS V14.01,2013-03-15 20:02:00,
2013-03-15 13:07:00,48.6,24.7,26.22,NW,315,4.9,7.2,39,0.00,,---,0.00,VWS V14.01,2013-03-15 20:07:00,
2013-03-15 13:12:00,48.4,25.2,26.22,NW,315,6.3,6.7,40,0.00,,---,0.00,VWS V14.01,2013-03-15 20:12:00,
2013-03-15 13:17:00,48.0,24.9,26.22,North,0,5.8,7.6,40,0.00,,---,0.00,VWS V14.01,2013-03-15 20:17:00,
2013-03-15 13:22:00,48.0,24.9,26.22,WSW,248,5.4,5.4,40,0.00,,---,0.00,VWS V14.01,2013-03-15 20:22:00,
2013-03-15 13:27:00,48.7,25.5,26.25,West,270,7.6,8.7,40,0.00,,---,0.00,VWS V14.01,2013-03-15 20:27:00,
2013-03-15 13:32:00,48.4,25.2,26.25,NW,315,4.9,4.9,40,0.00,,---,0.00,VWS V14.01,2013-03-15 20:32:00,
2013-03-15 13:37:00,48.7,25.5,26.25,North,0,6.3,7.6,40,0.00,,---,0.00,VWS V14.01,2013-03-15 20:37:00,
2013-03-15 13:42:00,48.7,25.5,26.22,NNW,338,4.9,6.3,40,0.00,,---,0.00,VWS V14.01,2013-03-15 20:42:00,
2013-03-15 13:47:00,48.7,24.9,26.22,NW,315,5.8,9.6,39,0.00,,---,0.00,VWS V14.01,2013-03-15 20:47:00,
2013-03-15 13:52:00,49.1,25.8,26.22,WNW,292,3.1,5.4,40,0.00,,---,0.00,VWS V14.01,2013-03-15 20:52:00,
2013-03-15 13:57:00,49.1,25.8,26.25,NW,315,6.3,6.3,40,0.00,,---,0.00,VWS V14.01,2013-03-15 20:57:00,
2013-03-15 14:02:00,48.7,24.9,26.25,NW,315,5.4,5.4,39,0.00,,---,0.00,VWS V14.01,2013-03-15 21:02:00,
2013-03-15 14:07:00,48.6,24.7,26.25,NNW,338,4.9,5.8,39,0.00,,---,0.00,VWS V14.01,2013-03-15 21:07:00,
2013-03-15 14:12:00,47.8,25.3,26.22,NW,315,4.9,4.9,41,0.00,,---,0.00,VWS V14.01,2013-03-15 21:12:00,
2013-03-15 14:17:00,47.1,24.6,26.22,NW,315,7.2,7.2,41,0.00,,---,0.00,VWS V14.01,2013-03-15 21:17:00,
2013-03-15 14:22:00,46.9,25.1,26.22,North,0,3.6,4.5,42,0.00,,---,0.00,VWS V14.01,2013-03-15 21:22:00,
2013-03-15 14:27:00,47.3,24.8,26.22,North,0,4.0,4.0,41,0.00,,---,0.00,VWS V14.01,2013-03-15 21:27:00,
2013-03-15 14:32:00,47.3,24.8,26.22,North,0,3.1,4.0,41,0.00,,---,0.00,VWS V14.01,2013-03-15 21:32:00,
2013-03-15 14:37:00,47.3,24.8,26.22,NNW,338,3.1,3.6,41,0.00,,---,0.00,VWS V14.01,2013-03-15 21:37:00,
2013-03-15 14:42:00,47.5,25.0,26.22,North,0,3.6,4.9,41,0.00,,---,0.00,VWS V14.01,2013-03-15 21:42:00,
2013-03-15 14:47:00,47.3,24.8,26.22,NW,315,2.2,2.7,41,0.00,,---,0.00,VWS V14.01,2013-03-15 21:47:00,
2013-03-15 14:52:00,47.8,25.3,26.22,NE,45,3.6,4.0,41,0.00,,---,0.00,VWS V14.01,2013-03-15 21:52:00,
2013-03-15 14:57:00,47.8,24.7,26.22,North,0,2.7,2.7,40,0.00,,---,0.00,VWS V14.01,2013-03-15 21:57:00,
2013-03-15 15:02:00,47.8,24.7,26.22,North,0,3.6,4.5,40,0.00,,---,0.00,VWS V14.01,2013-03-15 22:02:00,
2013-03-15 15:07:00,47.5,24.4,26.22,North,0,2.7,2.7,40,0.00,,---,0.00,VWS V14.01,2013-03-15 22:07:00,
2013-03-15 15:12:00,47.1,24.6,26.22,NW,315,2.7,3.6,41,0.00,,---,0.00,VWS V14.01,2013-03-15 22:12:00,
2013-03-15 15:17:00,46.9,25.1,26.22,NW,315,3.1,5.8,42,0.00,,---,0.00,VWS V14.01,2013-03-15 22:17:00,
2013-03-15 15:22:00,46.9,24.5,26.22,NNW,338,5.4,5.8,41,0.00,,---,0.00,VWS V14.01,2013-03-15 22:22:00,
2013-03-15 15:27:00,46.8,25.5,26.22,NW,315,6.7,6.7,43,0.00,,---,0.00,VWS V14.01,2013-03-15 22:27:00,
2013-03-15 15:32:00,46.6,25.3,26.22,NW,315,5.8,7.6,43,0.00,,---,0.00,VWS V14.01,2013-03-15 22:32:00,
2013-03-15 15:37:00,46.2,25.5,26.22,NW,315,10.1,10.1,44,0.00,,---,0.00,VWS V14.01,2013-03-15 22:37:00,
2013-03-15 15:42:00,45.9,25.2,26.22,NW,315,8.7,8.7,44,0.00,,---,0.00,VWS V14.01,2013-03-15 22:42:00,
2013-03-15 15:47:00,45.5,24.9,26.22,NNW,338,4.9,10.1,44,0.00,,---,0.00,VWS V14.01,2013-03-15 22:47:00,
2013-03-15 15:52:00,45.5,25.9,26.22,NW,315,4.0,4.0,46,0.00,,---,0.00,VWS V14.01,2013-03-15 22:52:00,
2013-03-15 15:57:00,45.1,26.1,26.22,North,0,4.0,4.9,47,0.00,,---,0.00,VWS V14.01,2013-03-15 22:57:00,
2013-03-15 16:02:00,45.0,26.5,26.22,NNW,338,5.4,5.4,48,0.00,,---,0.00,VWS V14.01,2013-03-15 23:02:00,
2013-03-15 16:07:00,44.6,27.1,26.22,NNW,338,5.4,5.4,50,0.00,,---,0.00,VWS V14.01,2013-03-15 23:07:00,
2013-03-15 16:12:00,44.6,27.6,26.22,NW,315,4.9,4.9,51,0.00,,---,0.00,VWS V14.01,2013-03-15 23:12:00,
2013-03-15 16:17:00,45.3,27.8,26.22,WNW,292,5.8,5.8,50,0.00,,---,0.00,VWS V14.01,2013-03-15 23:17:00,
2013-03-15 16:22:00,45.9,27.3,26.22,WNW,292,4.5,4.5,48,0.00,,---,0.00,VWS V14.01,2013-03-15 23:22:00,
2013-03-15 16:27:00,46.0,27.5,26.22,West,270,4.0,4.0,48,0.00,,---,0.00,VWS V14.01,2013-03-15 23:27:00,
2013-03-15 16:32:00,46.0,27.0,26.22,West,270,5.4,5.4,47,0.00,,---,0.00,VWS V14.01,2013-03-15 23:32:00,
2013-03-15 16:37:00,45.9,26.8,26.22,West,270,8.1,8.1,47,0.00,,---,0.00,VWS V14.01,2013-03-15 23:37:00,
2013-03-15 16:42:00,45.9,26.3,26.22,West,270,5.4,5.4,46,0.00,,---,0.00,VWS V14.01,2013-03-15 23:42:00,
2013-03-15 16:47:00,45.9,26.8,26.22,West,270,3.6,4.0,47,0.00,,---,0.00,VWS V14.01,2013-03-15 23:47:00,
2013-03-15 16:52:00,45.9,26.3,26.22,West,270,4.9,4.9,46,0.00,,---,0.00,VWS V14.01,2013-03-15 23:52:00,
2013-03-15 16:57:00,45.9,26.8,26.19,West,270,7.6,7.6,47,0.00,,---,0.00,VWS V14.01,2013-03-15 23:57:00,
2013-03-15 17:02:00,45.5,26.5,26.19,West,270,6.3,6.3,47,0.00,,---,0.00,VWS V14.01,2013-03-16 00:02:00,
2013-03-15 17:07:00,45.3,27.3,26.19,WNW,292,6.3,6.3,49,0.00,,---,0.00,VWS V14.01,2013-03-16 00:07:00,
2013-03-15 17:12:00,45.0,27.5,26.22,WSW,248,5.4,6.3,50,0.00,,---,0.00,VWS V14.01,2013-03-16 00:12:00,
2013-03-15 17:17:00,45.3,27.8,26.22,West,270,4.0,4.0,50,0.00,,---,0.00,VWS V14.01,2013-03-16 00:17:00,
2013-03-15 17:22:00,45.9,26.3,26.22,West,270,4.5,5.8,46,0.00,,---,0.00,VWS V14.01,2013-03-16 00:22:00,
2013-03-15 17:27:00,46.6,26.9,26.22,WSW,248,5.8,6.3,46,0.00,,---,0.00,VWS V14.01,2013-03-16 00:27:00,
2013-03-15 17:32:00,46.4,25.1,26.22,NW,315,3.1,4.0,43,0.00,,---,0.00,VWS V14.01,2013-03-16 00:32:00,
2013-03-15 17:37:00,46.0,24.8,26.22,NW,315,3.6,3.6,43,0.00,,---,0.00,VWS V14.01,2013-03-16 00:37:00,
2013-03-15 17:42:00,45.7,25.0,26.22,WNW,292,2.7,2.7,44,0.00,,---,0.00,VWS V14.01,2013-03-16 00:42:00,
2013-03-15 17:47:00,45.5,24.9,26.22,WNW,292,2.7,3.1,44,0.00,,---,0.00,VWS V14.01,2013-03-16 00:47:00,
2013-03-15 17:52:00,45.3,24.7,26.22,WNW,292,4.0,4.0,44,0.00,,---,0.00,VWS V14.01,2013-03-16 00:52:00,
2013-03-15 17:57:00,45.3,25.2,26.19,WNW,292,2.7,2.7,45,0.00,,---,0.00,VWS V14.01,2013-03-16 00:57:00,
2013-03-15 18:02:00,45.1,25.1,26.19,NW,315,4.0,4.0,45,0.00,,---,0.00,VWS V14.01,2013-03-16 01:02:00,
2013-03-15 18:07:00,44.8,25.8,26.19,NW,315,2.7,3.1,47,0.00,,---,0.00,VWS V14.01,2013-03-16 01:07:00,
2013-03-15 18:12:00,44.8,25.8,26.19,West,270,4.9,5.4,47,0.00,,---,0.00,VWS V14.01,2013-03-16 01:12:00,
2013-03-15 18:18:00,44.6,26.1,26.19,West,270,3.6,4.5,48,0.00,,---,0.00,VWS V14.01,2013-03-16 01:18:00,
2013-03-15 18:23:00,44.6,25.1,26.19,West,270,8.7,10.1,46,0.00,,---,0.00,VWS V14.01,2013-03-16 01:23:00,
2013-03-15 18:28:00,44.6,24.6,26.19,WNW,292,7.2,7.2,45,0.00,,---,0.00,VWS V14.01,2013-03-16 01:28:00,
2013-03-15 18:33:00,44.2,24.8,26.19,NW,315,5.8,5.8,46,0.00,,---,0.00,VWS V14.01,2013-03-16 01:33:00,
2013-03-15 18:38:00,43.5,25.1,26.19,NNW,338,2.7,4.0,48,0.00,,---,0.00,VWS V14.01,2013-03-16 01:38:00,
2013-03-15 18:43:00,43.0,25.1,26.19,North,0,2.7,2.7,49,0.00,,---,0.00,VWS V14.01,2013-03-16 01:43:00,
2013-03-15 18:48:00,42.4,25.6,26.19,North,0,2.7,2.7,51,0.00,,---,0.00,VWS V14.01,2013-03-16 01:48:00,
2013-03-15 18:53:00,41.9,25.6,26.19,North,0,4.0,4.5,52,0.00,,---,0.00,VWS V14.01,2013-03-16 01:53:00,
2013-03-15 18:58:00,41.5,25.7,26.19,North,0,3.1,4.0,53,0.00,,---,0.00,VWS V14.01,2013-03-16 01:58:00,
2013-03-15 19:03:00,41.2,25.8,26.19,North,0,3.6,4.0,54,0.00,,---,0.00,VWS V14.01,2013-03-16 02:03:00,
2013-03-15 19:08:00,40.8,26.4,26.19,North,0,3.6,4.0,56,0.00,,---,0.00,VWS V14.01,2013-03-16 02:08:00,
2013-03-15 19:13:00,40.5,26.0,26.19,North,0,3.1,4.0,56,0.00,,---,0.00,VWS V14.01,2013-03-16 02:13:00,
2013-03-15 19:18:00,40.5,26.0,26.19,North,0,4.9,5.4,56,0.00,,---,0.00,VWS V14.01,2013-03-16 02:18:00,
2013-03-15 19:23:00,40.5,25.6,26.19,North,0,5.4,5.4,55,0.00,,---,0.00,VWS V14.01,2013-03-16 02:23:00,
2013-03-15 19:28:00,40.3,25.4,26.19,NNW,338,2.7,4.0,55,0.00,,---,0.00,VWS V14.01,2013-03-16 02:28:00,
2013-03-15 19:33:00,40.1,25.7,26.19,NW,315,3.6,4.0,56,0.00,,---,0.00,VWS V14.01,2013-03-16 02:33:00,
2013-03-15 19:38:00,39.9,25.5,26.19,North,0,3.6,3.6,56,0.00,,---,0.00,VWS V14.01,2013-03-16 02:38:00,
2013-03-15 19:43:00,39.7,25.3,26.19,North,0,2.7,3.1,56,0.00,,---,0.00,VWS V14.01,2013-03-16 02:43:00,
2013-03-15 19:48:00,39.6,25.6,26.19,North,0,3.1,3.1,57,0.00,,---,0.00,VWS V14.01,2013-03-16 02:48:00,
2013-03-15 19:53:00,39.2,25.7,26.19,North,0,2.7,2.7,58,0.00,,---,0.00,VWS V14.01,2013-03-16 02:53:00,
2013-03-15 19:58:00,39.0,25.9,26.19,North,0,3.6,3.6,59,0.00,,---,0.00,VWS V14.01,2013-03-16 02:58:00,
2013-03-15 20:03:00,38.8,25.8,26.19,North,0,3.1,3.1,59,0.00,,---,0.00,VWS V14.01,2013-03-16 03:03:00,
2013-03-15 20:08:00,38.8,26.2,26.19,North,0,3.6,4.0,60,0.00,,---,0.00,VWS V14.01,2013-03-16 03:08:00,
2013-03-15 20:13:00,38.8,26.2,26.19,North,0,3.1,3.1,60,0.00,,---,0.00,VWS V14.01,2013-03-16 03:13:00,
2013-03-15 20:18:00,38.8,25.8,26.19,North,0,4.0,4.9,59,0.00,,---,0.00,VWS V14.01,2013-03-16 03:18:00,
2013-03-15 20:23:00,39.0,25.9,26.19,North,0,5.8,5.8,59,0.00,,---,0.00,VWS V14.01,2013-03-16 03:23:00,
2013-03-15 20:28:00,39.2,25.7,26.19,North,0,4.5,5.4,58,0.00,,---,0.00,VWS V14.01,2013-03-16 03:28:00,
2013-03-15 20:33:00,39.2,25.3,26.19,North,0,3.1,3.6,57,0.00,,---,0.00,VWS V14.01,2013-03-16 03:33:00,
2013-03-15 20:38:00,39.2,25.3,26.19,North,0,2.7,3.6,57,0.00,,---,0.00,VWS V14.01,2013-03-16 03:38:00,
2013-03-15 20:43:00,38.7,25.6,26.19,North,0,3.6,3.6,59,0.00,,---,0.00,VWS V14.01,2013-03-16 03:43:00,
2013-03-15 20:48:00,38.3,25.2,26.19,North,0,4.0,4.0,59,0.00,,---,0.00,VWS V14.01,2013-03-16 03:48:00,
2013-03-15 20:53:00,37.9,25.7,26.19,North,0,3.6,4.5,61,0.00,,---,0.00,VWS V14.01,2013-03-16 03:53:00,
2013-03-15 20:58:00,37.6,26.1,26.19,North,0,2.7,2.7,63,0.00,,---,0.00,VWS V14.01,2013-03-16 03:58:00,
2013-03-15 21:00:00,37.6,26.5,26.19,NNW,338,2.2,2.7,64,0.00,,---,0.00,VWS V14.01,2013-03-16 04:00:00,
2013-03-15 21:05:00,37.4,26.7,26.19,NW,315,3.1,3.6,65,0.00,,---,0.00,VWS V14.01,2013-03-16 04:05:00,
2013-03-15 21:10:00,37.4,26.7,26.16,NW,315,2.2,2.2,65,0.00,,---,0.00,VWS V14.01,2013-03-16 04:10:00,
2013-03-15 21:15:00,37.4,26.4,26.16,NW,315,2.7,3.6,64,0.00,,---,0.00,VWS V14.01,2013-03-16 04:15:00,
2013-03-15 21:20:00,37.4,26.0,26.16,NW,315,2.2,2.2,63,0.00,,---,0.00,VWS V14.01,2013-03-16 04:20:00,
2013-03-15 21:25:00,38.5,25.8,26.19,West,270,4.0,4.9,60,0.00,,---,0.00,VWS V14.01,2013-03-16 04:25:00,
2013-03-15 21:30:00,38.5,25.4,26.19,West,270,0.0,2.7,59,0.00,,---,0.00,VWS V14.01,2013-03-16 04:30:00,
2013-03-15 21:35:00,38.3,25.2,26.19,West,270,2.2,2.2,59,0.00,,---,0.00,VWS V14.01,2013-03-16 04:35:00,
2013-03-15 21:40:00,37.9,24.9,26.16,West,270,2.7,2.7,59,0.00,,---,0.00,VWS V14.01,2013-03-16 04:40:00,
2013-03-15 21:45:00,38.3,25.2,26.16,WNW,292,2.7,3.1,59,0.00,,---,0.00,VWS V14.01,2013-03-16 04:45:00,
2013-03-15 21:50:00,37.9,25.3,26.16,WNW,292,0.0,0.0,60,0.00,,---,0.00,VWS V14.01,2013-03-16 04:50:00,
2013-03-15 21:55:00,37.6,25.0,26.16,WNW,292,2.2,2.7,60,0.00,,---,0.00,VWS V14.01,2013-03-16 04:55:00,
2013-03-15 22:00:00,37.6,25.8,26.16,NW,315,2.7,2.7,62,0.00,,---,0.00,VWS V14.01,2013-03-16 05:00:00,
2013-03-15 22:05:00,37.4,25.6,26.16,NW,315,2.7,2.7,62,0.00,,---,0.00,VWS V14.01,2013-03-16 05:05:00,
2013-03-15 22:10:00,37.8,25.5,26.16,WNW,292,0.0,0.0,61,0.00,,---,0.00,VWS V14.01,2013-03-16 05:10:00,
2013-03-15 22:15:00,37.9,25.7,26.16,WNW,292,2.2,3.1,61,0.00,,---,0.00,VWS V14.01,2013-03-16 05:15:00,
2013-03-15 22:20:00,37.8,25.5,26.16,WNW,292,0.0,2.2,61,0.00,,---,0.00,VWS V14.01,2013-03-16 05:20:00,
2013-03-15 22:25:00,37.9,26.1,26.16,WNW,292,0.0,2.7,62,0.00,,---,0.00,VWS V14.01,2013-03-16 05:25:00,
2013-03-15 22:30:00,37.8,25.9,26.16,WNW,292,3.1,3.1,62,0.00,,---,0.00,VWS V14.01,2013-03-16 05:30:00,
2013-03-15 22:35:00,37.6,26.1,26.16,WNW,292,0.0,0.0,63,0.00,,---,0.00,VWS V14.01,2013-03-16 05:35:00,
2013-03-15 22:40:00,37.4,26.0,26.16,WNW,292,0.0,2.2,63,0.00,,---,0.00,VWS V14.01,2013-03-16 05:40:00,
2013-03-15 22:45:00,37.4,26.0,26.16,WNW,292,0.0,0.0,63,0.00,,---,0.00,VWS V14.01,2013-03-16 05:45:00,
2013-03-15 22:50:00,37.4,26.0,26.16,WNW,292,2.7,3.1,63,0.00,,---,0.00,VWS V14.01,2013-03-16 05:50:00,
2013-03-15 22:55:00,37.2,26.5,26.16,WNW,292,0.0,0.0,65,0.00,,---,0.00,VWS V14.01,2013-03-16 05:55:00,
2013-03-15 23:00:00,37.2,26.5,26.16,WNW,292,2.2,2.7,65,0.00,,---,0.00,VWS V14.01,2013-03-16 06:00:00,
2013-03-15 23:05:00,37.0,26.8,26.16,WNW,292,2.7,2.7,66,0.00,,---,0.00,VWS V14.01,2013-03-16 06:05:00,
2013-03-15 23:10:00,36.5,26.6,26.16,WNW,292,0.0,0.0,67,0.00,,---,0.00,VWS V14.01,2013-03-16 06:10:00,
2013-03-15 23:15:00,36.1,26.6,26.16,WNW,292,2.2,2.2,68,0.00,,---,0.00,VWS V14.01,2013-03-16 06:15:00,
2013-03-15 23:20:00,36.1,27.3,26.16,WNW,292,0.0,0.0,70,0.00,,---,0.00,VWS V14.01,2013-03-16 06:20:00,
2013-03-15 23:25:00,36.1,27.7,26.16,WNW,292,0.0,0.0,71,0.00,,---,0.00,VWS V14.01,2013-03-16 06:25:00,
2013-03-15 23:29:00,35.8,27.6,26.16,WNW,292,0.0,0.0,72,0.00,,---,0.00,VWS V14.01,2013-03-16 06:29:00,
2013-03-15 23:34:00,35.8,28.0,26.16,WNW,292,3.1,3.1,73,0.00,,---,0.00,VWS V14.01,2013-03-16 06:34:00,
2013-03-15 23:39:00,35.8,28.0,26.13,WNW,292,0.0,0.0,73,0.00,,---,0.00,VWS V14.01,2013-03-16 06:39:00,
2013-03-15 23:44:00,35.8,28.3,26.13,WNW,292,2.7,3.1,74,0.00,,---,0.00,VWS V14.01,2013-03-16 06:44:00,
2013-03-15 23:49:00,35.8,28.3,26.13,West,270,0.0,2.2,74,0.00,,---,0.00,VWS V14.01,2013-03-16 06:49:00,
2013-03-15 23:54:00,35.6,28.1,26.13,West,270,0.0,0.0,74,0.00,,---,0.00,VWS V14.01,2013-03-16 06:54:00,
2013-03-15 23:59:00,35.4,28.3,26.13,West,270,0.0,0.0,75,0.00,,---,0.00,VWS V14.01,2013-03-16 06:59:00,